GFSGBSN_700_temp_090.txt.gz
Temp
3 3 2 2 2 2 2 2 2 2 1 1 1 1 1 2 1 -0 -0 -1 -2 -1 -1 -1 -0 -0 -1 -1 -3 -4 -4 -4 -4 -5 -5 -6 -5 -6 -5 -6 -6 -6 -6 -6 -6 -5 -5
2 2 2 1 1 1 1 1 1 1 1 1 1 1 1 1 0 -1 -0 -2 -2 -2 -1 -1 -1 -1 -1 -2 -2 -4 -4 -4 -5 -6 -6 -6 -6 -6 -7 -6 -6 -5 -5 -5 -6 -5 -5
2 1 1 0 -0 -0 -0 0 -0 -0 -0 0 0 0 0 1 0 -0 -2 -2 -3 -2 -2 -1 -2 -1 -1 -3 -2 -4 -4 -4 -5 -6 -6 -6 -6 -6 -6 -6 -5 -5 -5 -6 -6 -5 -4
1 -0 -0 -1 -1 -1 -1 -2 -2 -2 -1 -2 -1 -0 -0 -0 0 -1 -3 -3 -3 -3 -2 -1 -1 -1 -2 -3 -3 -4 -4 -3 -4 -7 -6 -6 -6 -6 -6 -6 -6 -5 -6 -6 -5 -5 -4
-0 -1 -1 -1 -2 -2 -2 -2 -2 -2 -3 -3 -3 -3 -1 -1 -0 -2 -3 -4 -2 -2 -2 -1 -2 -2 -2 -3 -3 -4 -4 -3 -4 -5 -6 -6 -7 -6 -6 -6 -6 -5 -4 -5 -3 -3 -3
-1 -2 -2 -3 -3 -3 -3 -3 -4 -4 -4 -4 -4 -4 -3 -2 -1 -2 -4 -3 -2 -3 -2 -2 -2 -2 -3 -3 -4 -4 -4 -4 -5 -6 -6 -6 -6 -6 -5 -5 -3 -4 -4 -3 -3 -2 -3
-2 -3 -4 -4 -4 -4 -4 -5 -5 -5 -6 -6 -6 -6 -5 -4 -4 -4 -5 -4 -4 -3 -2 -2 -2 -2 -3 -3 -4 -4 -5 -5 -6 -6 -6 -6 -5 -5 -5 -4 -4 -4 -3 -3 -2 -2 -2
-3 -4 -5 -5 -4 -6 -6 -6 -6 -7 -7 -7 -7 -7 -6 -5 -4 -4 -5 -4 -3 -3 -3 -2 -2 -3 -4 -4 -4 -5 -5 -6 -6 -6 -6 -5 -5 -5 -4 -4 -4 -4 -3 -3 -2 -2 -2
-4 -5 -5 -5 -5 -6 -6 -7 -8 -9 -9 -8 -8 -8 -7 -6 -5 -5 -4 -5 -5 -4 -3 -3 -3 -3 -4 -4 -4 -4 -5 -5 -5 -5 -5 -5 -5 -4 -4 -3 -3 -3 -2 -2 -2 -3 -1
-5 -5 -6 -6 -7 -7 -8 -10 -10 -9 -9 -9 -9 -8 -8 -7 -7 -6 -6 -5 -4 -3 -4 -3 -3 -4 -3 -4 -4 -5 -5 -5 -4 -4 -5 -4 -4 -4 -4 -3 -3 -3 -3 -2 -2 -2 -0
-5 -6 -6 -7 -7 -9 -10 -10 -10 -10 -10 -10 -9 -9 -8 -8 -7 -7 -6 -5 -4 -5 -4 -3 -4 -4 -3 -4 -4 -4 -5 -4 -4 -4 -4 -4 -4 -4 -4 -4 -3 -2 -2 -2 -1 -2 -0
-6 -6 -7 -7 -7 -10 -10 -10 -10 -10 -10 -10 -10 -10 -9 -9 -7 -7 -6 -6 -5 -6 -4 -4 -4 -4 -4 -4 -4 -4 -4 -4 -4 -4 -4 -4 -4 -4 -3 -3 -3 -2 -2 -2 -1 -1 0
-6 -7 -8 -8 -8 -9 -10 -10 -11 -10 -10 -10 -10 -10 -10 -10 -7 -8 -7 -6 -6 -5 -3 -4 -4 -3 -4 -4 -4 -3 -4 -4 -4 -4 -4 -3 -3 -3 -3 -2 -2 -2 -2 -0 1 1 -0
-6 -7 -8 -9 -9 -10 -10 -10 -10 -10 -10 -10 -10 -10 -9 -9 -7 -8 -7 -6 -5 -4 -4 -4 -3 -4 -5 -4 -3 -4 -4 -3 -4 -3 -3 -3 -3 -3 -2 -2 -2 -2 -2 0 1 2 0
-6 -7 -8 -9 -9 -10 -10 -10 -10 -10 -10 -10 -9 -9 -9 -8 -7 -7 -7 -6 -5 -3 -3 -4 -5 -5 -4 -4 -3 -4 -3 -3 -3 -3 -3 -3 -3 -3 -2 -3 -2 -2 -2 -1 -1 -0 2
-6 -7 -8 -9 -9 -10 -10 -10 -10 -10 -10 -10 -9 -9 -8 -7 -7 -8 -7 -6 -5 -5 -4 -5 -4 -4 -4 -3 -3 -3 -3 -3 -3 -3 -2 -2 -3 -3 -2 -2 -2 -2 -1 -1 -0 2 1
-7 -7 -8 -9 -9 -10 -10 -10 -10 -10 -10 -9 -9 -8 -9 -8 -8 -7 -6 -6 -5 -5 -5 -5 -4 -3 -3 -3 -3 -3 -3 -2 -2 -2 -2 -2 -2 -2 -2 -2 -2 -1 -1 -1 -1 -1 3
-6 -7 -8 -9 -10 -10 -10 -10 -10 -10 -9 -9 -9 -8 -8 -8 -7 -7 -7 -6 -5 -5 -5 -5 -4 -3 -3 -2 -3 -3 -3 -3 -2 -2 -2 -1 -2 -3 -2 -2 -1 -1 -0 -0 1 0 -1
-7 -8 -9 -9 -10 -10 -10 -10 -10 -9 -9 -9 -8 -7 -7 -7 -7 -7 -7 -6 -5 -5 -5 -5 -4 -4 -3 -3 -3 -3 -2 -2 -2 -2 -1 -1 -1 -2 -1 -1 -1 -1 -0 0 1 1 -2
-7 -8 -9 -9 -10 -10 -10 -10 -9 -10 -9 -8 -8 -7 -7 -7 -7 -7 -7 -6 -6 -6 -5 -5 -5 -4 -3 -3 -2 -3 -2 -2 -2 -2 -1 -1 -1 -1 -0 -2 -2 -1 -1 0 1 1 1
-7 -9 -9 -10 -10 -10 -10 -9 -9 -9 -9 -7 -7 -7 -7 -7 -7 -6 -6 -6 -6 -5 -5 -5 -4 -4 -3 -3 -3 -3 -2 -2 -2 -2 -2 -2 -2 -2 -2 -2 -2 -1 -1 -0 -0 -0 0
-7 -8 -9 -10 -10 -10 -9 -9 -9 -8 -7 -7 -7 -7 -7 -7 -6 -7 -6 -6 -6 -5 -5 -5 -4 -4 -4 -3 -2 -2 -2 -2 -2 -2 -1 -1 -2 -3 -3 -2 -2 -1 -1 -0 -0 -0 -0
-7 -8 -9 -9 -9 -9 -9 -8 -8 -6 -6 -6 -5 -7 -7 -7 -7 -6 -7 -6 -6 -6 -5 -5 -4 -4 -4 -3 -3 -3 -3 -3 -2 -2 -2 -1 -1 -2 -2 -1 -1 -1 -1 -1 -0 -1 -1
-7 -8 -8 -8 -7 -7 -7 -7 -6 -5 -5 -6 -5 -5 -6 -6 -6 -6 -6 -6 -6 -6 -5 -5 -4 -4 -4 -3 -3 -3 -4 -4 -3 -3 -2 -2 -2 -2 -2 -1 0 -2 -1 -0 -0 -1 -0
-7 -7 -6 -6 -6 -6 -6 -5 -5 -4 -5 -5 -5 -5 -6 -7 -6 -6 -7 -6 -6 -6 -5 -5 -5 -4 -4 -4 -4 -4 -4 -4 -4 -4 -4 -3 -3 -3 -3 -2 -2 -1 -1 -1 -1 -1 -0
-6 -5 -4 -5 -5 -5 -4 -4 -4 -4 -4 -5 -5 -5 -6 -6 -6 -5 -8 -7 -6 -6 -5 -5 -5 -4 -4 -4 -4 -4 -4 -4 -5 -5 -4 -4 -4 -3 -3 -3 -1 -2 -1 -1 -1 -2 -1
-5 -5 -3 -3 -4 -4 -5 -4 -4 -4 -4 -4 -5 -5 -6 -6 -5 -5 -6 -6 -6 -5 -5 -5 -5 -5 -4 -4 -4 -4 -4 -4 -4 -4 -5 -4 -4 -4 -4 -3 -3 -2 -2 -2 -2 -1 -1
-3 -4 -3 -2 -4 -4 -2 -3 -3 -4 -4 -4 -4 -5 -5 -5 -5 -6 -6 -6 -5 -5 -5 -5 -5 -5 -4 -4 -4 -4 -4 -4 -4 -4 -4 -4 -4 -4 -4 -4 -3 -2 -2 -2 -2 -2 -2
-3 -4 -4 -3 -3 -3 -3 -3 -2 -3 -4 -3 -5 -6 -6 -5 -5 -6 -6 -6 -5 -5 -5 -5 -5 -5 -4 -4 -4 -4 -4 -4 -4 -4 -4 -4 -4 -4 -3 -3 -2 -2 -2 -3 -3 -3 -3

GFSGBSN_700_temp_096.txt.gz
Temp
1 1 1 0 -0 -1 -1 -2 -2 -2 -2 -2 -2 -2 -1 -1 -1 -0 0 -0 -2 -1 -1 -2 -2 -2 -2 -1 -1 1 -1 -2 -2 -2 -2 -3 -4 -6 -6 -6 -5 -5 -5 -5 -5 -5 -5
-0 -0 -1 -1 -1 -2 -3 -3 -3 -3 -3 -3 -2 -2 -2 -2 -1 -1 -1 -1 -2 -2 -2 -1 -2 -2 -2 -2 -2 -1 -2 -2 -2 -2 -3 -4 -5 -6 -6 -5 -5 -4 -5 -4 -5 -5 -4
-1 -1 -1 -2 -2 -3 -3 -3 -3 -3 -2 -2 -3 -3 -3 -2 -2 -2 -2 -2 -3 -2 -2 -2 -2 -2 -2 -2 -2 -2 -2 -3 -3 -3 -3 -4 -6 -6 -6 -6 -6 -5 -5 -4 -3 -3 -3
-2 -2 -3 -3 -4 -4 -4 -4 -4 -4 -3 -3 -3 -3 -3 -3 -3 -2 -2 -2 -2 -3 -2 -2 -2 -3 -2 -2 -2 -2 -2 -3 -3 -3 -3 -5 -6 -6 -5 -5 -5 -6 -6 -5 -2 -3 -3
-3 -4 -4 -5 -5 -4 -4 -4 -4 -5 -4 -4 -5 -5 -5 -4 -5 -4 -3 -2 -2 -3 -3 -3 -3 -3 -3 -2 -2 -3 -3 -3 -3 -3 -4 -6 -6 -6 -5 -5 -5 -5 -6 -5 -4 -3 -4
-4 -4 -4 -4 -5 -5 -6 -6 -6 -6 -5 -5 -6 -7 -8 -6 -6 -6 -5 -4 -5 -4 -4 -4 -4 -3 -3 -3 -3 -3 -3 -4 -4 -4 -4 -5 -6 -5 -5 -5 -6 -5 -5 -4 -4 -3 -3
-5 -5 -5 -6 -6 -7 -7 -8 -8 -7 -8 -9 -8 -8 -9 -8 -7 -6 -5 -5 -5 -5 -4 -4 -3 -4 -3 -3 -3 -4 -4 -4 -4 -5 -5 -5 -6 -3 -3 -4 -4 -4 -5 -5 -3 -3 -3
-4 -5 -5 -5 -5 -7 -7 -8 -8 -9 -9 -9 -9 -9 -9 -9 -8 -7 -7 -6 -6 -6 -5 -4 -4 -4 -4 -4 -4 -4 -4 -5 -5 -5 -6 -6 -5 -3 -5 -4 -4 -4 -5 -4 -3 -2 -3
-5 -5 -4 -4 -5 -6 -7 -9 -9 -9 -9 -9 -9 -9 -9 -9 -8 -8 -9 -7 -6 -5 -5 -5 -4 -4 -4 -4 -5 -4 -4 -5 -5 -5 -5 -5 -4 -4 -4 -4 -4 -4 -4 -4 -3 -2 -2
-4 -4 -4 -5 -5 -6 -8 -8 -10 -10 -10 -10 -10 -10 -9 -9 -9 -9 -8 -8 -6 -6 -5 -5 -5 -5 -5 -5 -5 -4 -5 -5 -5 -5 -5 -5 -3 -4 -4 -4 -4 -3 -2 -3 -2 -2 -2
-4 -4 -5 -6 -6 -7 -9 -9 -10 -10 -10 -10 -10 -10 -9 -9 -8 -8 -8 -7 -7 -6 -4 -5 -5 -5 -5 -5 -4 -5 -5 -5 -5 -4 -4 -4 -3 -3 -4 -3 -3 -3 -2 -2 -2 -2 -2
-5 -5 -5 -7 -6 -9 -9 -10 -10 -10 -10 -10 -9 -9 -9 -10 -9 -9 -8 -7 -7 -6 -4 -5 -5 -5 -5 -5 -4 -4 -4 -4 -4 -4 -4 -3 -4 -4 -3 -3 -3 -3 -2 -2 -2 -2 -1
-5 -6 -6 -8 -8 -9 -9 -10 -10 -9 -9 -9 -9 -9 -9 -9 -9 -8 -8 -7 -6 -5 -5 -5 -5 -5 -4 -4 -5 -4 -4 -4 -4 -4 -3 -3 -3 -3 -4 -3 -2 -3 -2 -1 -1 -1 -1
-5 -6 -7 -8 -8 -9 -9 -9 -9 -9 -9 -9 -9 -8 -8 -8 -8 -8 -8 -7 -6 -5 -5 -5 -5 -4 -4 -4 -4 -3 -4 -3 -4 -3 -4 -3 -3 -3 -3 -3 -2 -2 -2 -2 -1 0 -1
-5 -7 -8 -8 -8 -8 -9 -9 -9 -9 -9 -9 -9 -9 -8 -7 -7 -7 -7 -6 -6 -5 -5 -5 -5 -4 -4 -4 -4 -4 -3 -3 -3 -3 -3 -2 -3 -3 -3 -3 -2 -2 -2 -2 -2 1 -0
-5 -7 -7 -7 -8 -8 -8 -8 -10 -8 -8 -8 -7 -7 -6 -6 -6 -7 -7 -6 -5 -5 -5 -5 -3 -4 -3 -3 -3 -3 -3 -3 -3 -3 -3 -3 -2 -3 -2 -2 -1 -1 -1 -1 0 -0 -0
-5 -6 -6 -7 -7 -7 -7 -8 -8 -8 -8 -8 -6 -5 -6 -6 -6 -6 -6 -6 -5 -4 -4 -4 -3 -3 -2 -3 -3 -3 -3 -2 -2 -2 -2 -2 -2 -2 -2 -1 -1 -1 -1 -0 0 1 -1
-4 -4 -5 -4 -5 -6 -7 -7 -6 -6 -5 -5 -3 -4 -6 -6 -6 -6 -6 -6 -6 -5 -4 -4 -4 -3 -3 -3 -3 -2 -2 -2 -2 -2 -3 -2 -2 -1 -1 -1 -1 -1 -1 -0 0 1 2
-3 -4 -4 -4 -4 -4 -5 -5 -5 -5 -5 -3 -3 -5 -5 -5 -6 -6 -6 -6 -5 -5 -4 -4 -4 -3 -3 -3 -2 -3 -2 -2 -1 -1 -1 -1 -1 -1 -1 -0 -1 -1 -0 1 1 1 2
-3 -2 -3 -4 -4 -4 -4 -4 -4 -4 -4 -3 -2 -4 -5 -5 -6 -6 -6 -5 -5 -5 -4 -4 -4 -3 -3 -3 -2 -2 -2 -1 -1 -1 -1 -1 -1 -1 -2 -2 -2 -1 -0 1 1 0 -1
-3 -2 -2 -3 -4 -3 -3 -3 -3 -3 -3 -3 -3 -4 -4 -5 -5 -5 -5 -5 -5 -4 -4 -4 -3 -3 -3 -2 -2 -2 -1 -1 -2 -1 -0 -1 -2 -2 -2 -2 -1 -1 -1 0 1 1 -1
-2 -2 -2 -3 -3 -3 -3 -3 -3 -3 -3 -3 -3 -3 -4 -4 -5 -5 -5 -5 -4 -5 -5 -4 -3 -3 -3 -3 -2 -2 -2 -2 -1 -1 -1 -1 -1 -1 -1 -1 -1 -0 -1 -0 -0 0 -0
-1 -2 -2 -2 -2 -2 -3 -3 -3 -3 -3 -3 -3 -3 -3 -4 -5 -5 -6 -5 -5 -4 -4 -4 -4 -3 -2 -2 -3 -2 -1 -1 -1 -0 -1 -1 -1 -1 -1 -0 -1 -0 -1 -1 -1 -0 -0
-1 -1 -2 -2 -3 -2 -2 -3 -2 -3 -3 -3 -3 -3 -3 -4 -5 -5 -5 -5 -5 -4 -4 -3 -3 -3 -3 -2 -4 -3 -2 -1 -0 -0 -0 -2 -1 -1 -1 -0 -4 -1 -0 -0 -0 -0 -1
-0 -1 -1 -1 -2 -2 -2 -2 -2 -3 -3 -3 -3 -3 -3 -4 -5 -5 -5 -5 -4 -4 -4 -4 -3 -3 -4 -3 -3 -3 -2 -2 -2 -1 -1 -0 -2 -2 -1 0 -1 -1 -1 -0 -1 -1 -1
-0 -0 -1 -1 -1 -2 -2 -1 -2 -3 -3 -3 -3 -3 -3 -3 -5 -6 -6 -6 -5 -4 -4 -3 -4 -3 -3 -3 -3 -2 -3 -3 -2 -3 -2 -2 -2 -2 -2 -1 -0 -1 -1 -1 -1 -1 -1
-1 -0 -0 -1 -1 -2 -1 -1 -2 -3 -3 -3 -3 -3 -3 -2 -4 -5 -5 -6 -5 -5 -4 -4 -4 -4 -3 -3 -3 -2 -2 -2 -2 -2 -3 -3 -2 -2 -2 -1 -1 -1 -1 -1 -0 -1 -1
-0 -0 -0 -1 -0 -1 -2 -1 -1 -2 -4 -3 -3 -3 -3 -3 -4 -4 -5 -5 -5 -4 -5 -4 -4 -4 -4 -3 -3 -3 -3 -3 -3 -3 -3 -3 -2 -2 -2 -2 -3 -1 -2 -1 -1 -1 -1
-0 -1 -1 -1 -1 -0 -1 -1 -1 -1 -3 -4 -3 -3 -3 -3 -4 -4 -4 -5 -5 -5 -4 -4 -4 -3 -3 -4 -4 -3 -4 -3 -3 -3 -3 -3 -2 -2 -2 -2 -2 -1 -1 -2 -2 -2 -2

GFSGBSN_700_temp_099.txt.gz
Temp
-1 -2 -3 -3 -3 -3 -3 -3 -3 -3 -2 -2 -2 -2 -2 -2 -1 -1 -1 -1 -0 -0 -1 -1 -2 -2 -2 -2 -1 -1 -1 -1 -2 -2 -2 -2 -2 -3 -4 -4 -5 -5 -4 -5 -5 -5 -4
-3 -3 -4 -4 -4 -4 -4 -4 -4 -4 -3 -3 -3 -3 -3 -2 -2 -2 -2 -2 -1 -1 -2 -2 -3 -2 -2 -2 -1 -1 -2 -2 -2 -2 -3 -3 -3 -5 -6 -5 -5 -4 -5 -4 -4 -3 -3
-4 -4 -4 -4 -5 -5 -5 -5 -5 -5 -4 -4 -4 -4 -3 -3 -2 -2 -2 -2 -2 -1 -1 -2 -2 -2 -3 -3 -2 -2 -2 -2 -2 -3 -3 -3 -5 -5 -6 -4 -5 -5 -4 -3 -2 -2 -4
-5 -5 -5 -5 -5 -4 -5 -6 -6 -7 -6 -6 -5 -5 -4 -4 -4 -4 -3 -2 -2 -2 -3 -2 -3 -4 -3 -3 -3 -2 -3 -3 -3 -3 -3 -4 -5 -6 -6 -5 -5 -5 -5 -4 -1 -3 -3
-4 -4 -4 -4 -4 -5 -5 -6 -6 -7 -7 -6 -6 -6 -6 -6 -6 -5 -4 -5 -3 -2 -4 -3 -4 -4 -4 -3 -3 -3 -3 -3 -3 -3 -3 -4 -5 -7 -6 -6 -6 -6 -5 -4 -2 -2 -3
-5 -5 -4 -4 -4 -4 -5 -6 -7 -7 -8 -8 -7 -7 -9 -8 -8 -7 -7 -5 -5 -5 -4 -4 -4 -4 -4 -3 -3 -3 -3 -4 -4 -4 -4 -6 -7 -6 -6 -6 -6 -4 -5 -4 -4 -2 -4
-5 -4 -4 -4 -4 -5 -6 -6 -7 -8 -8 -8 -9 -9 -9 -9 -8 -8 -7 -6 -5 -6 -5 -4 -4 -4 -3 -3 -3 -4 -4 -4 -5 -5 -5 -5 -5 -3 -4 -5 -5 -5 -5 -4 -3 -2 -4
-4 -5 -5 -6 -5 -6 -6 -7 -8 -9 -9 -9 -9 -9 -9 -9 -9 -9 -8 -8 -7 -6 -6 -5 -4 -4 -5 -4 -3 -4 -5 -5 -6 -6 -6 -6 -4 -4 -5 -5 -5 -4 -4 -4 -3 -2 -3
-5 -5 -7 -7 -7 -9 -8 -9 -9 -9 -9 -10 -9 -9 -9 -9 -9 -9 -9 -8 -7 -6 -5 -5 -5 -5 -5 -4 -5 -5 -5 -6 -6 -6 -6 -5 -4 -4 -5 -4 -4 -4 -4 -3 -3 -3 -2
-5 -6 -6 -7 -8 -9 -9 -10 -10 -10 -9 -9 -9 -9 -9 -9 -9 -9 -8 -9 -7 -6 -5 -5 -5 -5 -4 -5 -5 -5 -5 -6 -6 -6 -6 -6 -4 -4 -5 -5 -4 -4 -3 -3 -3 -3 -2
-6 -6 -7 -7 -9 -9 -9 -9 -9 -9 -9 -9 -9 -9 -9 -9 -9 -8 -7 -7 -7 -6 -5 -6 -6 -5 -5 -5 -5 -5 -5 -6 -5 -5 -5 -4 -4 -4 -4 -4 -3 -3 -3 -3 -3 -2 -3
-6 -6 -6 -7 -8 -9 -9 -9 -9 -9 -9 -9 -9 -9 -9 -8 -7 -7 -7 -6 -6 -6 -5 -5 -5 -6 -5 -4 -5 -4 -5 -5 -5 -4 -4 -3 -4 -4 -3 -3 -3 -3 -2 -2 -2 -2 -2
-4 -5 -5 -7 -8 -8 -9 -9 -9 -9 -8 -8 -8 -7 -8 -7 -7 -6 -6 -5 -5 -5 -5 -6 -5 -6 -5 -4 -4 -4 -4 -4 -4 -4 -4 -4 -4 -4 -4 -3 -2 -3 -3 -2 -2 -2 -1
-3 -3 -5 -6 -7 -8 -9 -9 -8 -8 -8 -8 -6 -6 -7 -6 -6 -5 -5 -5 -5 -5 -5 -5 -5 -5 -4 -4 -4 -4 -3 -3 -4 -4 -4 -3 -3 -3 -3 -3 -3 -2 -3 -2 -2 -0 -1
-2 -3 -4 -5 -6 -7 -7 -8 -8 -8 -6 -6 -4 -5 -6 -5 -5 -5 -5 -5 -5 -5 -5 -5 -4 -4 -4 -4 -4 -4 -4 -3 -4 -3 -3 -3 -3 -3 -2 -2 -2 -2 -2 -2 -3 -2 -1
-2 -3 -3 -4 -5 -5 -5 -5 -5 -4 -4 -4 -4 -4 -5 -4 -5 -5 -5 -5 -5 -5 -5 -4 -4 -4 -3 -4 -4 -4 -3 -3 -3 -3 -3 -3 -3 -2 -2 -2 -2 -1 -2 -2 -2 -2 -0
-1 -2 -3 -3 -4 -5 -4 -4 -4 -4 -3 -3 -3 -3 -5 -5 -5 -4 -5 -5 -5 -4 -4 -4 -4 -3 -3 -3 -3 -3 -3 -3 -3 -3 -3 -3 -2 -1 -1 -1 -1 -1 -1 -2 -1 -1 -1
-1 -2 -2 -3 -4 -4 -4 -3 -3 -3 -3 -2 -2 -3 -5 -5 -5 -5 -5 -4 -4 -4 -3 -3 -3 -3 -3 -3 -2 -2 -2 -2 -2 -2 -3 -2 -2 -1 -1 -1 -1 -1 -0 0 0 0 -1
-0 -1 -2 -3 -3 -3 -4 -3 -3 -3 -3 -2 -2 -3 -4 -4 -6 -5 -5 -5 -5 -4 -3 -2 -3 -2 -2 -2 -2 -2 -2 -2 -2 -1 -1 -1 -1 -1 -1 -0 0 0 1 1 1 1 -2
-0 -1 -1 -2 -3 -3 -3 -3 -3 -3 -3 -2 -2 -3 -4 -4 -5 -6 -5 -5 -5 -4 -3 -3 -3 -3 -3 -2 -2 -2 -2 -2 -1 -1 -1 -1 -1 -1 -3 -2 -1 -0 0 1 1 -1 -2
-0 -0 -1 -1 -2 -3 -3 -3 -3 -2 -2 -3 -2 -3 -4 -4 -5 -5 -5 -5 -4 -4 -4 -3 -3 -2 -2 -2 -2 -2 -2 -2 -1 -1 -1 -1 -2 -2 -2 -2 -1 -1 -0 1 1 0 0
0 -0 -1 -0 -1 -1 -2 -3 -3 -2 -2 -2 -3 -3 -3 -4 -5 -4 -5 -4 -4 -4 -4 -4 -3 -3 -2 -1 -3 -2 -2 -1 -1 -1 -0 -1 -2 -1 -2 -1 -1 -0 -0 -1 -1 -0 -1
1 0 0 -1 -1 -0 -1 -2 -2 -2 -2 -2 -2 -3 -4 -4 -4 -4 -4 -5 -5 -5 -4 -4 -3 -3 -2 -2 -2 -2 -1 -1 -0 -0 -0 -0 -1 -1 -1 -1 -1 -0 -1 -1 -1 -1 -1
1 0 0 0 -0 -1 -0 -1 -2 -2 -2 -2 -3 -3 -3 -4 -4 -4 -4 -4 -4 -5 -4 -4 -3 -2 -3 -2 -2 -2 -2 -1 -1 0 0 -0 -0 -0 -0 -0 -5 -1 -1 -1 -0 -0 -1
1 1 1 1 0 -0 -1 1 -1 -2 -2 -2 -2 -3 -3 -3 -4 -4 -4 -4 -4 -4 -4 -4 -3 -3 -3 -2 -2 -2 -2 -1 -1 -1 -0 -0 0 -0 -1 -1 -1 -1 -1 -1 -0 -0 -0
0 1 1 1 1 0 -1 -0 0 -1 -1 -2 -3 -3 -3 -3 -4 -5 -5 -4 -4 -4 -4 -3 -3 -3 -3 -2 -2 -2 -2 -2 -2 -1 -1 -1 -1 -1 -1 -1 -1 -0 -1 -1 -1 -0 -0
1 0 1 1 0 0 0 -1 -1 -1 -1 -2 -3 -3 -3 -2 -2 -3 -4 -4 -4 -4 -4 -4 -3 -3 -3 -3 -3 -3 -3 -2 -2 -2 -2 -1 -2 -2 -2 -2 -1 -1 -1 -1 -2 -1 -1
1 1 1 1 0 0 0 0 -1 -2 -2 -2 -2 -2 -2 -3 -3 -4 -4 -4 -5 -4 -4 -4 -4 -3 -3 -3 -3 -3 -3 -3 -2 -2 -2 -2 -2 -2 -2 -2 -3 -1 -2 -2 -1 -1 -1
1 0 0 1 1 0 -0 -0 -1 -1 -2 -2 -2 -2 -2 -3 -3 -4 -4 -4 -4 -5 -4 -4 -4 -4 -4 -3 -4 -3 -3 -3 -3 -3 -2 -2 -2 -2 -2 -2 -2 -1 -1 -2 -2 -2 -2

GFSGBSN_700_temp_102.txt.gz
Temp
-4 -4 -4 -4 -4 -4 -4 -4 -4 -5 -5 -5 -5 -6 -4 -3 -3 -2 -2 -2 -2 -2 -1 -1 -2 -2 -2 -2 -2 -2 -1 -1 -1 -1 -1 -1 -1 -1 -1 -2 -3 -2 -2 -2 -3 -2 -1
-4 -4 -4 -4 -4 -3 -4 -5 -5 -5 -6 -6 -6 -5 -4 -3 -3 -2 -2 -2 -2 -1 -2 -1 -1 -2 -2 -3 -2 -2 -1 -2 -2 -2 -1 -2 -2 -2 -2 -2 -3 -3 -3 -3 -3 -2 -3
-4 -4 -4 -4 -4 -4 -4 -4 -5 -5 -6 -6 -7 -7 -5 -4 -4 -3 -2 -2 -1 -2 -2 -2 -3 -3 -3 -3 -3 -3 -2 -3 -2 -2 -2 -3 -2 -2 -3 -3 -4 -4 -4 -3 -2 -2 -3
-4 -4 -5 -5 -5 -5 -5 -5 -5 -6 -6 -6 -7 -7 -7 -7 -4 -3 -3 -2 -1 -2 -2 -2 -3 -3 -3 -3 -3 -3 -3 -3 -3 -2 -3 -3 -3 -3 -4 -4 -5 -5 -5 -4 -2 -3 -3
-4 -5 -5 -6 -6 -6 -6 -6 -6 -7 -7 -8 -8 -8 -8 -8 -6 -5 -4 -3 -2 -3 -3 -4 -4 -4 -3 -3 -3 -4 -4 -4 -3 -3 -3 -4 -3 -4 -6 -6 -7 -6 -6 -4 -3 -2 -3
-5 -6 -7 -6 -7 -8 -8 -8 -8 -8 -8 -8 -8 -8 -9 -9 -8 -7 -7 -7 -6 -5 -4 -5 -4 -5 -4 -4 -4 -4 -5 -4 -3 -3 -3 -4 -5 -5 -6 -7 -6 -5 -5 -5 -5 -3 -4
-7 -6 -6 -6 -7 -8 -9 -9 -9 -9 -9 -9 -9 -9 -9 -9 -9 -8 -8 -7 -5 -5 -4 -5 -4 -4 -4 -4 -5 -5 -5 -4 -4 -4 -4 -5 -6 -3 -5 -5 -5 -6 -6 -4 -4 -2 -5
-5 -5 -5 -6 -7 -8 -8 -9 -9 -9 -9 -9 -9 -9 -9 -9 -9 -9 -8 -7 -7 -6 -6 -5 -5 -5 -5 -5 -5 -5 -5 -4 -4 -5 -6 -6 -4 -5 -5 -6 -6 -6 -5 -4 -3 -3 -4
-2 -3 -5 -6 -8 -8 -8 -8 -9 -8 -8 -9 -9 -9 -9 -9 -9 -8 -8 -8 -7 -7 -6 -6 -5 -5 -5 -5 -5 -5 -5 -6 -6 -6 -6 -6 -5 -5 -5 -5 -5 -5 -5 -4 -4 -3 -2
-1 -3 -4 -6 -8 -8 -9 -9 -9 -9 -8 -8 -8 -8 -9 -8 -8 -8 -7 -7 -7 -6 -5 -5 -5 -5 -5 -5 -5 -6 -6 -6 -6 -6 -6 -6 -5 -4 -4 -4 -5 -5 -3 -3 -3 -3 -3
-1 -2 -3 -5 -7 -8 -8 -8 -8 -8 -8 -8 -8 -8 -8 -7 -7 -7 -7 -7 -6 -5 -5 -5 -5 -5 -5 -5 -5 -5 -6 -6 -6 -6 -5 -4 -4 -4 -4 -4 -4 -3 -4 -3 -3 -3 -3
-1 -1 -3 -4 -6 -8 -8 -8 -8 -8 -7 -7 -7 -7 -7 -7 -7 -6 -7 -6 -6 -5 -6 -6 -5 -5 -5 -5 -5 -5 -6 -6 -5 -5 -5 -4 -4 -5 -3 -3 -4 -4 -4 -3 -3 -3 -2
-0 -1 -3 -3 -4 -5 -5 -6 -5 -5 -5 -6 -6 -5 -6 -6 -6 -6 -6 -5 -5 -5 -6 -5 -5 -5 -5 -5 -5 -5 -5 -5 -5 -4 -4 -4 -3 -3 -3 -3 -3 -3 -3 -3 -2 -2 -2
-0 -1 -2 -3 -3 -4 -3 -3 -3 -4 -4 -5 -5 -5 -6 -5 -5 -6 -6 -5 -5 -5 -5 -5 -5 -5 -5 -4 -4 -4 -4 -4 -4 -5 -4 -4 -4 -3 -3 -3 -3 -3 -3 -3 -2 -1 -1
-0 -1 -0 -2 -3 -4 -3 -3 -3 -3 -4 -4 -4 -4 -4 -5 -5 -5 -5 -5 -5 -5 -5 -5 -5 -4 -4 -4 -4 -4 -3 -4 -4 -3 -3 -3 -3 -2 -2 -2 -2 -2 -2 -3 -3 -2 -2
0 -0 -0 -1 -2 -3 -4 -3 -3 -3 -3 -3 -3 -4 -4 -4 -4 -3 -4 -5 -5 -5 -5 -5 -4 -4 -4 -4 -4 -4 -3 -3 -3 -3 -3 -3 -3 -2 -2 -2 -2 -2 -3 -3 -3 -2 -1
0 0 -1 -0 -1 -2 -3 -3 -3 -3 -3 -3 -3 -3 -3 -3 -3 -3 -4 -5 -4 -4 -4 -4 -3 -3 -3 -3 -3 -3 -3 -3 -3 -3 -3 -3 -3 -1 -1 -1 -1 -2 -3 -3 -3 -2 -2
0 0 -0 -1 -0 -1 -2 -2 -3 -3 -3 -3 -2 -2 -4 -3 -3 -3 -4 -4 -4 -3 -3 -3 -3 -3 -3 -3 -3 -3 -2 -2 -3 -3 -2 -2 -2 -1 -1 -1 -1 -1 -3 -2 -1 -1 -2
1 0 0 -0 -1 -0 -1 -2 -3 -3 -4 -3 -3 -2 -3 -2 -3 -4 -4 -4 -4 -3 -3 -3 -3 -3 -3 -2 -2 -2 -2 -2 -2 -2 -2 -1 -2 -1 -0 0 -0 -1 -1 0 -0 -0 -3
2 1 1 0 -0 -1 -1 -1 -2 -2 -3 -3 -3 -2 -3 -3 -3 -4 -4 -4 -4 -3 -3 -3 -3 -3 -2 -2 -2 -2 -2 -2 -2 -1 -1 -1 -2 -2 -3 -2 -2 -1 0 -0 0 -0 -3
1 2 1 1 1 0 -0 0 -0 -1 -2 -3 -3 -3 -3 -3 -4 -4 -4 -4 -3 -3 -3 -3 -3 -2 -2 -2 -2 -2 -2 -1 -1 -1 -1 -1 -2 -2 -2 -1 -1 -1 -1 1 0 -0 -2
1 2 2 2 1 1 -0 -0 0 0 -1 -2 -3 -3 -3 -4 -4 -4 -4 -4 -4 -3 -3 -3 -2 -2 -2 -1 -2 -2 -2 -1 -1 -0 -0 -1 -1 -1 -1 -1 -0 -1 -1 -1 -0 -1 -2
1 1 2 2 2 1 1 0 0 0 0 -1 -2 -3 -3 -4 -4 -4 -3 -4 -4 -3 -3 -3 -2 -2 -2 -1 -1 -2 -2 -2 -1 -0 0 0 -0 -0 -0 -0 -0 -0 -1 -2 -1 -1 -1
1 1 1 2 2 2 2 1 1 0 1 -0 -2 -2 -3 -3 -4 -4 -4 -3 -2 -3 -3 -3 -2 -2 -1 -1 -1 -1 -2 -2 -1 -0 -0 -0 -0 -0 -1 -0 -5 -1 -1 -1 -1 -1 -1
1 1 1 1 1 2 2 2 1 0 1 1 -1 -3 -3 -2 -3 -4 -4 -4 -3 -3 -3 -3 -2 -2 -1 -1 -1 -1 -0 -0 -1 -0 0 -0 -0 -0 -0 -1 -1 -1 -1 -1 -1 -1 -1
1 2 1 1 1 1 1 2 2 0 -0 -0 0 -1 -3 -3 -3 -4 -4 -4 -4 -3 -3 -3 -3 -2 -2 -1 -1 -1 -1 -1 -0 0 0 0 -0 -0 -1 -1 -1 -1 -1 -1 -1 -0 -0
0 1 1 1 1 1 1 1 2 1 -0 -2 -1 -0 -1 -2 -3 -3 -3 -4 -4 -4 -3 -3 -3 -3 -3 -2 -2 -2 -2 -2 -1 -1 -1 -1 -1 -1 -1 -1 -0 -1 -1 -1 -1 -0 -0
0 1 1 1 2 0 0 1 1 1 1 -1 -1 -1 -0 -1 -3 -3 -3 -3 -4 -4 -4 -3 -3 -3 -3 -3 -3 -3 -3 -2 -2 -2 -1 -2 -2 -2 -2 -2 -2 -1 -1 -1 -0 -0 -0
-0 0 0 0 1 0 -1 0 0 1 0 -1 -1 -1 -1 -0 -2 -2 -3 -3 -3 -4 -4 -4 -4 -3 -4 -3 -4 -4 -4 -4 -3 -3 -2 -2 -2 -2 -2 -2 -2 -1 -1 -1 -1 -1 -1

GFSGBSN_700_temp_105.txt.gz
Temp
-4 -4 -4 -5 -4 -4 -4 -4 -4 -5 -4 -5 -5 -6 -5 -5 -5 -4 -4 -3 -3 -3 -3 -3 -3 -3 -1 -2 -2 -2 -2 -2 -1 -1 -1 -1 -0 0 -0 -0 -0 -0 -0 -0 -0 0 0
-4 -4 -3 -4 -5 -5 -5 -5 -4 -6 -5 -5 -5 -6 -6 -5 -6 -5 -3 -3 -3 -2 -2 -2 -2 -3 -3 -3 -2 -2 -2 -2 -2 -1 -1 -1 -1 -1 -1 -1 -1 -1 -1 -0 -0 -0 -1
-1 -1 -3 -4 -6 -6 -7 -8 -7 -6 -5 -6 -6 -7 -7 -6 -6 -5 -3 -2 -2 -2 -2 -2 -3 -2 -2 -3 -3 -3 -4 -3 -2 -2 -2 -2 -2 -1 -1 -2 -3 -2 -1 -1 -1 -1 -2
-0 -2 -4 -5 -6 -7 -7 -8 -9 -8 -7 -7 -7 -7 -7 -6 -6 -5 -4 -3 -2 -2 -2 -3 -3 -3 -3 -3 -4 -4 -3 -4 -3 -3 -3 -3 -3 -3 -2 -3 -4 -3 -3 -3 -1 -2 -2
-0 -2 -4 -5 -7 -8 -8 -7 -8 -8 -8 -8 -8 -8 -8 -8 -6 -6 -5 -3 -2 -2 -2 -3 -4 -4 -4 -4 -4 -4 -4 -4 -4 -4 -3 -3 -3 -3 -3 -4 -4 -5 -4 -3 -2 -2 -3
0 -1 -3 -5 -7 -8 -8 -8 -7 -8 -8 -8 -8 -8 -8 -8 -8 -8 -7 -5 -5 -4 -3 -4 -5 -4 -4 -4 -4 -4 -4 -4 -4 -4 -4 -4 -4 -4 -3 -5 -4 -5 -5 -4 -3 -2 -4
0 -0 -2 -3 -7 -8 -8 -8 -7 -8 -8 -8 -8 -8 -8 -8 -8 -8 -7 -6 -6 -5 -5 -5 -5 -5 -4 -4 -4 -4 -4 -4 -4 -4 -4 -4 -4 -3 -5 -5 -6 -6 -6 -5 -2 -3 -5
1 -0 -1 -2 -4 -7 -7 -7 -8 -8 -8 -8 -8 -8 -8 -8 -8 -8 -8 -7 -6 -5 -5 -5 -5 -5 -5 -5 -4 -5 -5 -6 -6 -6 -5 -5 -4 -5 -5 -5 -6 -7 -6 -4 -2 -2 -4
1 0 -0 -1 -2 -5 -8 -7 -8 -8 -8 -8 -8 -8 -8 -8 -8 -9 -8 -7 -7 -6 -5 -5 -5 -5 -4 -5 -5 -4 -5 -6 -6 -7 -6 -6 -5 -5 -5 -5 -5 -5 -6 -4 -4 -3 -3
2 1 0 -1 -1 -2 -6 -7 -7 -6 -7 -7 -8 -7 -7 -8 -8 -9 -9 -7 -7 -6 -5 -6 -5 -6 -6 -6 -6 -6 -6 -6 -6 -6 -6 -6 -5 -4 -4 -4 -5 -5 -3 -4 -4 -4 -3
2 1 1 -0 -1 -1 -3 -4 -5 -5 -6 -6 -6 -7 -7 -7 -7 -7 -7 -7 -6 -5 -5 -6 -6 -5 -6 -6 -6 -6 -6 -6 -6 -6 -6 -5 -5 -4 -5 -4 -5 -4 -4 -4 -4 -4 -4
2 2 1 0 -1 -1 -2 -3 -4 -5 -5 -5 -5 -5 -6 -6 -7 -6 -6 -6 -6 -5 -6 -6 -6 -5 -5 -6 -5 -6 -6 -6 -6 -6 -6 -4 -5 -5 -4 -4 -4 -4 -4 -3 -3 -4 -3
1 1 1 1 -0 -1 -2 -2 -3 -4 -4 -4 -4 -5 -4 -5 -5 -5 -6 -5 -5 -6 -6 -6 -5 -5 -5 -5 -6 -6 -5 -5 -5 -5 -5 -4 -4 -4 -3 -3 -3 -3 -3 -3 -3 -2 -2
-0 0 1 1 1 -0 -1 -1 -2 -3 -3 -4 -4 -4 -4 -5 -5 -4 -4 -4 -5 -6 -6 -5 -5 -5 -5 -5 -5 -5 -5 -5 -4 -5 -4 -4 -3 -3 -3 -3 -3 -3 -3 -3 -2 -2 -2
-0 -0 0 1 0 1 -1 -1 -2 -2 -3 -3 -3 -3 -3 -3 -4 -4 -4 -5 -5 -5 -5 -5 -5 -5 -5 -4 -4 -4 -4 -4 -4 -4 -4 -4 -3 -2 -2 -2 -3 -2 -3 -3 -3 -3 -2
0 -1 -0 -0 0 -0 -0 -1 -2 -2 -2 -3 -3 -3 -4 -4 -4 -3 -3 -4 -5 -5 -5 -4 -4 -4 -5 -4 -4 -4 -4 -3 -3 -3 -4 -4 -3 -2 -2 -2 -2 -3 -3 -3 -3 -3 -1
1 -0 -1 -0 -1 -1 -1 -1 -1 -1 -2 -2 -2 -2 -3 -3 -3 -2 -3 -5 -5 -4 -4 -4 -4 -4 -4 -3 -4 -3 -3 -3 -3 -3 -3 -3 -3 -1 -1 -1 -2 -3 -3 -3 -3 -3 -2
0 0 -0 -0 -0 -0 -0 -1 -1 -1 -0 -2 -2 -2 -2 -3 -2 -2 -4 -4 -4 -3 -3 -3 -3 -3 -3 -3 -3 -3 -3 -3 -3 -3 -3 -2 -2 -1 -0 -1 -2 -3 -3 -4 -3 -3 -3
1 0 1 0 0 0 -0 -0 -1 -1 -1 -1 -2 -2 -3 -2 -3 -3 -3 -4 -4 -3 -3 -3 -3 -3 -2 -3 -2 -3 -3 -3 -2 -2 -2 -2 -2 -2 -0 -0 -2 -2 -2 -1 -2 -2 -3
1 1 1 1 0 1 0 -1 -1 -1 -1 -0 -1 -2 -3 -3 -3 -3 -3 -3 -3 -3 -3 -3 -3 -3 -2 -2 -2 -2 -2 -2 -2 -2 -2 -2 -2 -2 -3 -2 -3 -2 -1 -0 -1 -1 -3
1 1 2 1 1 1 1 -0 -0 -0 -1 -0 -1 -2 -3 -3 -3 -3 -3 -3 -3 -3 -2 -2 -2 -2 -1 -1 -1 -1 -1 -2 -2 -2 -1 -1 -1 -2 -2 -2 -2 -2 -1 -0 -0 -1 -2
1 1 1 2 1 1 1 1 1 0 -1 -1 -0 -2 -3 -3 -4 -4 -3 -3 -3 -3 -2 -2 -2 -1 -1 -1 -1 -1 -1 -1 -1 -1 -1 -1 -1 -1 -1 -1 -1 -1 -1 -1 -1 -1 -1
2 1 1 2 2 2 2 2 2 1 -0 -1 -0 -0 -2 -3 -4 -4 -3 -3 -3 -3 -3 -2 -2 -2 -2 -1 -1 -1 -1 -0 -0 -0 -0 -0 -0 -0 0 -0 -0 -0 -0 -0 -1 -1 -1
3 1 1 1 2 2 2 2 2 2 1 -1 -1 -0 0 -1 -3 -3 -3 -3 -3 -3 -3 -3 -2 -2 -2 -1 -1 -1 -0 -0 -0 -0 0 0 0 -0 -0 0 -4 -0 -0 -1 -1 -1 -0
3 2 1 1 1 2 2 1 1 1 2 1 -1 -1 -0 1 -1 -3 -3 -3 -2 -2 -3 -2 -2 -2 -2 -2 -1 -0 -0 -0 -0 -0 0 0 0 0 -0 -1 0 -0 -0 -1 -1 -1 -0
2 3 2 1 1 1 1 2 1 1 1 1 0 -0 -1 -0 1 -0 -2 -3 -3 -2 -2 -2 -2 -3 -2 -2 -1 -1 -0 -0 0 -0 -0 -0 -0 -0 -0 -1 -2 1 0 -0 -1 -0 -0
2 3 1 1 1 2 1 2 1 1 -0 0 1 0 -0 -1 -0 0 -1 -1 -2 -3 -3 -2 -2 -2 -2 -2 -2 -2 -2 -2 -1 -1 -0 -1 -1 -1 -2 -1 0 -0 -1 -0 -1 0 -0
1 2 2 1 1 1 1 1 1 0 0 -0 -0 -0 -0 -1 -1 -1 -0 -1 -1 -2 -3 -3 -3 -2 -2 -3 -3 -3 -3 -2 -2 -2 -2 -2 -2 -1 -2 -2 -2 -1 -2 -1 -0 -0 -0
1 1 1 1 0 0 1 0 0 0 0 0 -1 -1 -0 -0 -2 -2 -2 -2 -2 -2 -2 -3 -3 -3 -3 -3 -3 -4 -4 -4 -3 -3 -2 -2 -2 -3 -2 -1 -1 -2 -2 -2 -1 -1 -1

GFSGBSN_700_temp_108.txt.gz
Temp
2 0 0 -2 -6 -6 -6 -7 -8 -8 -7 -5 -5 -5 -5 -6 -6 -5 -5 -6 -6 -6 -5 -4 -5 -2 -3 -2 -2 -2 -2 -2 -2 -1 -1 -0 -0 -0 -0 0 1 1 1 1 1 1 1
1 1 1 -1 -5 -6 -7 -7 -7 -8 -7 -6 -5 -6 -7 -5 -6 -5 -5 -5 -4 -4 -4 -4 -4 -5 -3 -4 -4 -3 -3 -3 -3 -2 -2 -1 -1 -0 -0 -0 -0 -0 0 1 1 0 1
1 2 2 -0 -4 -5 -6 -7 -7 -7 -8 -8 -7 -7 -7 -6 -6 -6 -6 -5 -4 -3 -2 -3 -3 -4 -4 -3 -3 -3 -3 -3 -3 -3 -2 -2 -1 -1 -1 -1 -1 -1 -0 -0 -0 0 1
2 2 2 0 -2 -5 -6 -7 -7 -7 -7 -8 -7 -7 -7 -6 -6 -6 -5 -5 -4 -3 -3 -3 -3 -4 -3 -3 -4 -3 -4 -4 -3 -3 -3 -2 -2 -2 -2 -2 -1 -1 -1 -1 -0 -0 -1
1 1 1 0 -1 -4 -6 -7 -7 -6 -7 -7 -7 -7 -7 -7 -6 -6 -5 -5 -4 -3 -3 -3 -4 -3 -4 -4 -4 -4 -4 -4 -4 -3 -3 -3 -3 -3 -2 -2 -2 -2 -2 -2 -1 -1 -2
1 1 1 1 -0 -2 -4 -6 -6 -6 -6 -7 -7 -7 -8 -7 -7 -6 -5 -5 -4 -4 -3 -4 -4 -4 -4 -4 -4 -4 -4 -4 -4 -4 -3 -3 -3 -3 -3 -3 -3 -3 -3 -2 -2 -2 -3
1 1 1 1 0 -1 -1 -2 -4 -6 -6 -7 -7 -8 -8 -8 -7 -7 -6 -5 -5 -4 -6 -5 -4 -4 -4 -4 -5 -4 -4 -4 -4 -4 -4 -3 -3 -3 -3 -3 -4 -4 -5 -4 -1 -2 -4
1 1 1 1 -0 -1 -2 -2 -3 -5 -5 -6 -7 -7 -8 -9 -8 -8 -7 -6 -6 -6 -5 -6 -5 -5 -5 -5 -4 -5 -5 -4 -4 -4 -4 -4 -4 -4 -4 -4 -4 -4 -5 -2 -2 -3 -4
0 1 1 1 0 -1 -2 -2 -3 -4 -5 -6 -7 -7 -8 -9 -8 -8 -6 -6 -5 -5 -6 -6 -5 -5 -5 -5 -5 -5 -5 -5 -5 -5 -6 -5 -5 -5 -4 -5 -5 -5 -5 -3 -4 -4 -3
-0 0 1 1 1 -0 -1 -2 -2 -3 -4 -5 -6 -7 -8 -8 -8 -6 -6 -6 -5 -5 -5 -6 -6 -5 -5 -5 -5 -6 -6 -6 -6 -6 -6 -5 -5 -4 -4 -4 -5 -5 -4 -4 -5 -5 -4
-0 -0 -0 0 1 -0 -1 -2 -3 -3 -3 -4 -5 -6 -7 -7 -7 -5 -5 -4 -5 -4 -6 -6 -5 -5 -5 -5 -5 -5 -6 -6 -6 -6 -6 -5 -4 -5 -5 -5 -5 -5 -5 -5 -4 -5 -4
-0 -1 -1 -0 -0 -0 -1 -2 -2 -3 -3 -3 -4 -4 -5 -6 -5 -5 -5 -5 -5 -4 -6 -6 -6 -5 -5 -5 -5 -5 -6 -6 -6 -5 -4 -4 -5 -5 -4 -4 -5 -4 -4 -3 -3 -4 -4
0 -1 -1 -1 -1 -1 -1 -1 -2 -2 -3 -3 -3 -3 -4 -4 -5 -5 -5 -4 -4 -6 -6 -6 -5 -5 -5 -5 -6 -6 -6 -4 -5 -5 -4 -4 -3 -4 -4 -4 -3 -3 -4 -3 -4 -2 -3
0 -0 -1 -1 -1 -1 -1 -1 -2 -2 -2 -3 -4 -3 -3 -4 -4 -4 -4 -4 -5 -6 -6 -5 -5 -5 -5 -5 -5 -5 -5 -5 -4 -5 -5 -4 -3 -3 -3 -3 -3 -3 -3 -3 -3 -4 -2
1 1 -0 -1 -1 -1 -1 -2 -2 -2 -2 -2 -3 -3 -3 -4 -3 -3 -4 -5 -5 -5 -5 -5 -5 -5 -5 -4 -4 -5 -5 -4 -4 -4 -5 -4 -3 -3 -3 -3 -3 -3 -3 -3 -3 -3 -3
2 1 1 -0 -1 -1 -1 -1 -1 -2 -2 -2 -2 -3 -2 -3 -3 -2 -3 -5 -4 -4 -4 -5 -4 -4 -4 -4 -4 -4 -4 -4 -3 -4 -4 -4 -3 -2 -2 -2 -3 -3 -3 -3 -3 -3 -2
2 2 1 1 -0 -1 -1 -1 -1 -1 -1 -1 -1 -2 -2 -3 -3 -2 -5 -5 -5 -4 -4 -4 -4 -3 -3 -3 -4 -4 -4 -4 -3 -3 -3 -4 -3 -1 -2 -2 -3 -3 -3 -3 -3 -3 -2
1 2 1 1 1 0 -1 -1 -1 -1 -1 -1 -1 -2 -2 -2 -2 -2 -4 -4 -4 -4 -4 -4 -3 -3 -3 -3 -3 -3 -3 -3 -3 -3 -3 -3 -3 -2 -1 -1 -3 -3 -3 -4 -4 -3 -3
2 2 3 1 1 1 0 -0 -0 -0 -1 -1 -1 -1 -2 -2 -2 -3 -4 -4 -4 -3 -3 -3 -3 -3 -3 -3 -3 -3 -3 -3 -3 -2 -2 -2 -2 -2 -1 -1 -2 -3 -3 -3 -4 -3 -3
3 2 2 3 2 2 1 0 1 -0 -1 -1 -1 -1 -1 -2 -2 -2 -3 -3 -3 -3 -3 -3 -3 -3 -2 -2 -2 -2 -2 -2 -2 -2 -2 -2 -2 -2 -2 -2 -2 -3 -3 -2 -2 -3 -4
3 3 2 2 3 2 1 1 1 1 -0 -1 -1 -2 -1 -2 -2 -2 -2 -3 -3 -3 -2 -3 -3 -2 -2 -2 -1 -1 -1 -1 -1 -1 -1 -1 -1 -1 -1 -1 -1 -2 -2 -2 -1 -1 -2
3 3 3 2 3 2 2 1 1 1 1 -0 -1 -1 -1 -1 -2 -2 -2 -2 -3 -2 -2 -2 -2 -2 -1 -1 -1 -1 -1 -1 -1 -1 -1 -1 -1 -1 -0 -1 -1 -0 -1 -1 -1 -1 -2
2 3 3 2 1 3 2 1 1 1 1 -0 -0 -1 -0 -1 -1 -2 -2 -2 -2 -2 -2 -2 -2 -2 -1 -1 -1 -1 -1 -1 -0 -0 -1 -1 -0 -0 0 0 0 -0 0 0 -0 -1 -1
2 3 3 2 1 2 3 2 1 1 1 0 0 -0 -0 0 0 -0 -1 -2 -1 -2 -2 -2 -2 -2 -2 -1 -1 -0 -1 -1 -0 -0 -0 -0 -1 -1 -0 1 -4 1 1 0 0 0 0
2 2 3 2 1 1 2 2 1 1 1 0 0 0 0 0 1 1 0 -1 -1 -1 -1 -1 -2 -2 -2 -1 -1 -0 0 -0 0 -0 -1 -0 -0 -0 -0 -0 1 1 1 1 0 1 0
1 2 3 2 1 1 1 2 1 0 1 0 -0 -0 0 0 0 1 1 1 0 -0 -1 -1 -1 -1 -1 -2 -1 -1 -0 -0 -1 -1 -0 -1 -1 -1 -0 -1 -1 0 0 -0 -1 1 1
1 2 2 2 1 0 0 1 1 1 0 1 -0 -1 -1 -0 0 1 1 1 0 0 -0 -0 -0 -1 -1 -1 -2 -2 -2 -2 -1 -1 -1 -1 -1 -2 -2 -1 1 -0 -1 -1 -2 -0 0
1 1 2 2 1 -0 0 0 1 1 1 0 1 -1 -1 -1 -0 -1 -0 0 -0 -1 -1 -2 -1 0 0 -1 -2 -2 -2 -3 -2 -2 -2 -2 -2 -2 -3 -3 -3 -1 -1 -2 -1 -1 -1
1 1 1 1 0 -0 -0 -0 0 -0 0 1 0 1 -1 -1 -1 -1 -1 -1 -1 -1 -1 -1 -3 -3 -3 -2 -2 -3 -3 -3 -2 -3 -2 -2 -2 -2 -2 -1 -1 -1 -2 -2 -2 -2 -2

GFSGBSN_700_temp_111.txt.gz
Temp
2 2 2 1 1 -1 -4 -5 -5 -5 -7 -6 -6 -6 -6 -6 -6 -5 -5 -5 -5 -6 -6 -5 -4 -3 -3 -3 -3 -2 -2 -2 -2 -1 -1 -0 -1 -0 0 1 1 1 1 2 2 2 2
2 2 2 1 0 -0 -3 -4 -6 -5 -6 -6 -4 -6 -6 -6 -6 -6 -5 -5 -5 -5 -6 -5 -5 -4 -3 -3 -3 -2 -2 -2 -2 -2 -2 -1 -1 -1 -0 0 0 1 1 1 1 1 2
1 2 2 1 0 -1 -2 -2 -4 -6 -5 -6 -7 -5 -5 -5 -5 -5 -5 -5 -5 -4 -4 -4 -5 -5 -4 -4 -3 -3 -3 -3 -3 -2 -2 -1 -1 -1 -0 0 0 1 1 1 1 1 2
1 1 2 1 0 -1 -2 -3 -3 -5 -5 -5 -6 -6 -6 -6 -6 -5 -5 -5 -4 -4 -4 -4 -5 -5 -4 -4 -4 -3 -3 -3 -3 -3 -2 -1 -1 -1 -1 -0 -0 -0 0 1 1 1 1
1 0 1 1 0 -1 -2 -3 -4 -4 -5 -5 -6 -6 -6 -7 -6 -6 -5 -5 -4 -3 -4 -5 -4 -4 -4 -4 -4 -4 -4 -3 -3 -3 -3 -2 -2 -1 -1 -1 -1 -1 -1 -0 0 0 -0
1 0 1 1 0 -1 -2 -3 -4 -4 -5 -5 -6 -7 -7 -6 -7 -6 -6 -5 -4 -4 -5 -4 -4 -4 -4 -4 -4 -4 -4 -4 -4 -3 -3 -2 -2 -2 -2 -1 -2 -2 -2 -1 -1 -1 -2
1 0 -1 0 0 -1 -2 -3 -4 -4 -5 -6 -6 -7 -7 -7 -7 -6 -6 -5 -5 -5 -5 -4 -5 -4 -5 -4 -5 -4 -4 -4 -4 -3 -3 -2 -2 -3 -2 -2 -2 -3 -3 -3 -1 -2 -2
0 0 -1 -0 0 -1 -2 -3 -4 -5 -5 -6 -7 -7 -8 -7 -7 -6 -5 -6 -5 -5 -6 -6 -5 -5 -5 -5 -5 -5 -5 -4 -4 -4 -3 -3 -3 -3 -3 -3 -3 -4 -4 -2 -1 -3 -3
0 -0 -0 -1 -1 -1 -1 -2 -3 -5 -5 -5 -6 -6 -6 -6 -6 -5 -5 -4 -4 -5 -6 -5 -5 -5 -5 -5 -5 -5 -5 -5 -4 -4 -4 -4 -4 -4 -4 -4 -4 -4 -4 -3 -3 -3 -3
1 0 -1 -1 -2 -1 -1 -2 -3 -3 -5 -5 -5 -5 -6 -6 -4 -4 -3 -4 -4 -4 -4 -6 -6 -6 -6 -5 -6 -5 -5 -5 -5 -5 -5 -4 -4 -4 -4 -4 -5 -4 -3 -3 -3 -5 -5
1 0 -0 -1 -1 -2 -2 -2 -2 -3 -3 -4 -5 -4 -4 -4 -3 -3 -3 -4 -3 -3 -8 -6 -5 -5 -5 -5 -5 -5 -5 -5 -6 -6 -5 -4 -4 -5 -5 -5 -5 -4 -3 -3 -4 -5 -5
1 0 -0 -0 -1 -2 -2 -2 -2 -3 -4 -3 -4 -4 -4 -3 -4 -4 -4 -3 -4 -3 -7 -5 -5 -5 -5 -5 -5 -5 -5 -5 -5 -5 -5 -4 -5 -4 -4 -4 -3 -3 -3 -3 -4 -4 -4
0 0 0 -0 -1 -1 -2 -2 -2 -3 -4 -4 -3 -4 -4 -4 -4 -4 -4 -4 -3 -6 -6 -6 -6 -6 -6 -5 -5 -5 -5 -5 -5 -5 -4 -3 -3 -3 -3 -3 -3 -3 -4 -3 -4 -3 -2
1 0 0 -0 -0 -1 -1 -1 -2 -2 -3 -4 -3 -3 -4 -4 -3 -3 -4 -4 -5 -6 -6 -5 -5 -5 -5 -5 -5 -5 -5 -5 -4 -4 -5 -4 -2 -3 -3 -3 -3 -3 -3 -3 -3 -3 -2
2 0 0 0 0 -0 -1 -1 -1 -2 -3 -3 -3 -2 -3 -3 -3 -3 -3 -4 -6 -6 -5 -5 -5 -5 -5 -5 -5 -5 -5 -5 -4 -4 -4 -4 -3 -2 -2 -3 -3 -3 -3 -3 -3 -3 -3
2 2 1 1 0 0 -0 -1 -0 -1 -2 -2 -2 -1 -2 -3 -2 -2 -2 -4 -5 -5 -5 -5 -5 -4 -4 -4 -5 -4 -4 -4 -3 -4 -4 -4 -4 -2 -2 -3 -3 -3 -3 -3 -3 -3 -2
2 2 2 1 1 1 1 -1 -0 -0 -1 -2 -1 -1 -1 -2 -2 -2 -3 -5 -5 -4 -4 -4 -4 -4 -3 -4 -4 -4 -4 -3 -3 -3 -4 -4 -4 -2 -2 -2 -3 -3 -3 -4 -4 -4 -2
3 2 2 2 1 2 1 1 0 -0 -1 -1 -1 -1 -1 -1 -1 -2 -4 -4 -4 -4 -3 -3 -3 -3 -3 -3 -3 -3 -3 -3 -3 -3 -3 -4 -4 -3 -2 -3 -3 -4 -4 -4 -4 -3 -4
3 2 2 3 2 2 2 2 0 0 -0 -1 -1 -1 -1 -1 -1 -2 -3 -4 -3 -3 -3 -3 -3 -3 -3 -3 -3 -2 -3 -3 -3 -3 -3 -3 -2 -3 -1 -2 -3 -3 -3 -3 -3 -4 -3
3 3 2 2 2 1 2 2 1 1 0 -0 -1 -1 -1 -1 -1 -1 -1 -3 -3 -3 -3 -3 -3 -3 -2 -3 -2 -2 -2 -2 -3 -3 -3 -3 -2 -2 -2 -2 -2 -2 -2 -3 -3 -4 -3
2 3 2 2 2 2 2 2 2 1 1 1 -0 -1 0 -0 -1 -1 -1 -1 -2 -3 -3 -3 -3 -2 -2 -2 -2 -2 -2 -2 -2 -2 -2 -2 -2 -1 -1 -1 -1 -2 -1 -2 -2 -2 -2
2 3 3 2 2 2 1 2 3 1 1 1 1 -0 -1 0 0 -1 -0 -1 -1 -1 -2 -2 -2 -2 -2 -2 -2 -1 -1 -1 -1 -1 -1 -1 -1 -1 0 -0 -1 -1 -1 -1 -1 -1 -1
2 2 3 2 2 2 2 1 2 2 1 1 2 0 -1 -1 1 0 -0 0 0 0 -0 -1 -1 -1 -1 -1 -1 -1 -1 -1 -1 -1 -0 -1 -1 -1 -0 -0 -1 -0 1 0 0 -0 -0
2 2 3 3 2 2 1 2 1 2 1 0 0 1 1 -0 -0 1 0 0 0 -0 -0 0 0 -1 -1 -1 -0 0 -0 -0 0 -0 -1 -1 -1 -1 -0 0 -4 2 1 1 0 0 0
2 1 2 3 2 1 1 1 2 1 2 1 0 1 0 1 -0 -0 0 0 0 -0 -0 -0 0 0 0 -0 -0 1 1 0 0 -0 -1 -1 -2 -1 -1 -1 2 1 1 0 0 1 0
2 1 2 3 3 1 0 0 1 1 1 1 1 0 1 0 1 0 -1 -0 -0 -1 -0 -1 -1 -0 -0 1 0 -1 0 0 0 0 0 -0 -1 -2 -2 -2 -1 1 1 0 -0 0 -0
1 1 1 2 3 2 0 0 -0 1 1 1 1 0 -0 0 0 0 -0 -1 -1 -1 -2 -2 -1 -2 -2 -1 -0 -1 -0 -0 -0 -0 -0 -1 -1 -2 -2 -2 0 0 -1 -1 -1 0 -0
1 1 0 1 2 2 1 -0 -0 -0 1 1 1 1 1 -0 -0 -0 -0 -0 -1 -1 -2 -2 -2 -2 -2 -3 -3 -2 -2 -2 -2 -1 -1 -2 -2 -2 -3 -3 -3 -1 -1 -1 -1 -1 -1
1 0 -0 0 1 2 1 -0 -1 -1 -0 0 1 1 0 1 -0 -0 -1 -0 -1 -1 -1 -2 -3 -3 -3 -3 -3 -3 -3 -3 -2 -3 -2 -2 -1 -1 -2 -0 -1 -1 -2 -2 -2 -2 -2

GFSGBSN_700_temp_114.txt.gz
Temp
2 1 2 1 0 -1 -2 -3 -4 -6 -6 -5 -6 -6 -6 -6 -5 -5 -5 -5 -6 -5 -6 -5 -5 -4 -4 -4 -3 -3 -2 -2 -2 -1 -1 0 0 1 1 1 1 1 2 2 2 2 3
2 1 1 1 0 -1 -2 -3 -4 -5 -6 -6 -5 -6 -6 -6 -6 -4 -4 -5 -5 -5 -5 -6 -6 -4 -3 -3 -4 -3 -2 -2 -2 -2 -1 -0 -0 0 0 1 1 1 2 2 2 2 2
1 1 -0 1 -0 -1 -2 -3 -4 -5 -6 -7 -7 -6 -6 -7 -6 -5 -5 -5 -5 -5 -5 -6 -6 -6 -5 -5 -4 -3 -2 -2 -2 -2 -2 -1 -0 -0 0 0 1 1 1 2 2 2 2
1 0 -0 0 -1 -2 -3 -3 -5 -6 -7 -7 -8 -7 -7 -7 -6 -5 -6 -4 -4 -5 -4 -5 -5 -5 -5 -5 -4 -3 -2 -2 -2 -2 -2 -1 -1 -1 -0 0 0 0 1 1 2 2 2
1 0 -0 -1 -1 -1 -2 -3 -5 -6 -8 -9 -8 -8 -7 -7 -7 -6 -5 -4 -4 -5 -4 -5 -5 -6 -5 -4 -4 -4 -3 -3 -3 -3 -2 -2 -1 -1 -1 -1 -0 0 -0 1 1 2 1
0 0 -0 -2 -2 -2 -2 -3 -4 -6 -8 -8 -9 -9 -8 -7 -6 -5 -5 -4 -5 -5 -5 -5 -5 -5 -4 -4 -4 -4 -4 -4 -3 -2 -2 -2 -1 -1 -1 -0 0 -2 -0 1 1 0 0
1 -0 -1 -1 -2 -2 -2 -3 -4 -5 -7 -7 -7 -8 -7 -7 -6 -5 -4 -4 -5 -5 -5 -5 -4 -4 -4 -5 -4 -5 -5 -4 -4 -3 -2 -2 -2 -1 -1 -1 -1 -1 -1 -0 0 -1 -0
1 0 -1 -1 -2 -3 -2 -3 -3 -4 -5 -5 -6 -7 -6 -7 -6 -5 -3 -3 -4 -4 -5 -5 -5 -5 -5 -5 -5 -5 -4 -5 -4 -3 -2 -2 -3 -2 -2 -2 -2 -2 -2 -2 -1 -2 -2
1 0 -0 -1 -1 -2 -3 -3 -3 -4 -3 -3 -4 -5 -5 -5 -5 -5 -4 -3 -3 -3 -5 -5 -6 -5 -5 -5 -5 -5 -5 -4 -4 -3 -3 -3 -3 -2 -2 -2 -2 -2 -2 -4 -3 -2 -2
1 0 0 -1 -1 -1 -2 -3 -3 -4 -3 -2 -3 -3 -4 -4 -4 -5 -4 -4 -3 -3 -4 -6 -5 -6 -5 -6 -5 -5 -5 -5 -5 -4 -3 -3 -3 -3 -3 -3 -3 -4 -3 -3 -3 -5 -3
1 0 0 -0 -1 -1 -2 -2 -3 -3 -3 -2 -2 -2 -3 -4 -3 -4 -4 -4 -4 -3 -3 -5 -6 -5 -5 -5 -5 -5 -4 -4 -5 -4 -4 -4 -4 -3 -3 -3 -3 -4 -3 -4 -4 -5 -5
1 1 0 0 -0 -0 -1 -1 -2 -3 -3 -3 -2 -2 -2 -3 -3 -3 -3 -3 -3 -3 -5 -6 -5 -6 -5 -5 -5 -5 -5 -5 -4 -4 -4 -4 -3 -3 -3 -4 -3 -3 -2 -3 -4 -4 -3
2 1 1 1 0 0 -0 -1 -2 -2 -3 -3 -2 -2 -2 -2 -3 -3 -3 -3 -3 -5 -6 -5 -5 -5 -6 -5 -5 -5 -5 -4 -5 -4 -4 -3 -3 -3 -3 -3 -3 -3 -4 -2 -1 -2 1
2 1 1 1 1 1 0 -1 -1 -1 -2 -2 -2 -1 -1 -2 -2 -3 -3 -3 -5 -6 -6 -5 -5 -5 -5 -5 -5 -5 -5 -5 -4 -4 -5 -4 -3 -3 -3 -3 -3 -3 -3 -3 -1 0 1
2 2 1 1 1 1 1 -0 -0 -1 -2 -2 -1 -1 0 0 -1 -1 -2 -3 -5 -5 -5 -5 -5 -5 -5 -4 -4 -4 -4 -4 -3 -4 -4 -4 -3 -3 -2 -2 -3 -3 -3 -3 -3 -3 -2
2 2 2 1 2 1 1 1 -0 -0 -1 -2 -1 -0 -0 0 0 -1 -1 -4 -4 -4 -4 -4 -4 -4 -4 -4 -4 -4 -4 -3 -4 -3 -3 -3 -3 -2 -2 -2 -3 -3 -3 -3 -3 -1 -0
3 3 2 1 1 2 1 1 0 0 0 -1 -1 -0 -1 -1 -1 -1 -1 -4 -4 -4 -4 -4 -4 -4 -4 -4 -4 -4 -3 -3 -3 -3 -2 -2 -4 -2 -2 -2 -3 -3 -3 -3 -3 -4 -0
3 3 3 2 2 2 1 1 1 0 1 -0 0 -0 -1 -0 -1 0 -1 -3 -3 -3 -4 -4 -3 -3 -3 -3 -3 -3 -3 -3 -3 -3 -3 -3 -4 -4 -2 -2 -3 -3 -4 -4 -3 -3 -3
3 3 2 3 2 2 2 1 1 1 1 1 0 0 -0 -1 -0 0 -1 -1 -2 -2 -3 -3 -3 -3 -3 -3 -3 -3 -3 -3 -3 -3 -3 -3 -3 -3 -1 -2 -3 -3 -4 -4 -4 -4 -3
2 3 3 2 3 3 2 2 2 2 1 1 1 0 -0 -1 -1 -1 -0 -1 -1 -1 -1 -2 -2 -2 -2 -2 -2 -2 -2 -2 -2 -2 -2 -3 -2 -2 -1 -1 -2 -2 -3 -3 -3 -4 -1
3 3 3 3 2 3 3 2 2 2 2 1 2 1 1 -1 -1 -1 -1 -0 -0 -0 -0 -0 -1 -1 -1 -1 -1 -1 -1 -1 -2 -2 -2 -3 -2 -1 -1 -1 -1 -1 -2 -2 -3 -2 -2
3 3 3 3 3 3 3 2 2 2 2 2 2 2 1 0 -0 -0 -1 -1 -0 -0 0 0 0 0 0 0 0 -0 -0 -1 -1 -1 -2 -2 -2 -1 1 1 -0 -0 -0 -1 -1 -1 -1
3 3 3 3 3 3 3 3 2 2 2 2 2 1 2 1 0 -0 -0 -1 -1 -1 -0 -0 -0 0 1 1 1 1 1 1 0 0 -0 -1 -2 -2 -1 0 -1 0 3 1 0 -0 -0
2 2 3 3 3 3 2 3 2 2 1 2 1 1 1 2 2 1 0 -0 -1 -1 -1 -1 -1 -1 -0 0 1 1 2 2 1 1 0 -0 -1 -2 -1 -0 0 2 2 1 -0 -0 -0
2 2 2 2 2 3 2 2 3 1 2 1 1 1 1 1 1 2 1 0 0 -0 -1 -1 -1 -1 -1 -1 -1 0 2 1 2 1 1 -0 -1 -1 -2 -2 1 1 1 -0 -0 0 -0
2 2 2 2 2 2 2 2 2 2 1 1 1 1 1 1 1 1 1 1 0 0 0 0 -0 -1 -1 -1 -2 -1 -0 0 0 -0 -0 -1 -2 -3 -3 -2 1 2 1 1 0 -1 -0
1 2 2 2 1 1 2 2 2 2 1 0 1 0 1 1 0 0 1 0 -0 -0 -0 -0 -0 -0 -1 -2 -2 -2 -1 -1 -1 -1 -1 -2 -3 -3 -3 -3 -1 1 0 -0 -1 -0 -1
1 1 1 1 1 1 1 1 1 1 1 0 0 0 0 0 0 0 -0 0 -0 -0 -1 -2 -2 -0 -1 -2 -3 -2 -3 -2 -2 -1 -1 -1 -2 -2 -3 -4 -2 -0 -1 -1 -1 -1 -2
-0 0 0 0 0 -0 0 0 0 0 1 1 -0 -0 0 0 0 1 1 0 0 -0 -0 -1 -2 -2 -2 -2 -3 -3 -3 -3 -3 -4 -2 -3 -2 -2 -2 -1 -1 -1 -1 -3 -3 -3 -3

GFSGBSN_700_temp_117.txt.gz
Temp
1 1 -0 -1 -1 -2 -3 -4 -5 -5 -6 -7 -7 -7 -6 -6 -5 -5 -5 -5 -5 -4 -5 -5 -4 -4 -3 -3 -2 -2 -2 -2 -1 -1 -0 0 1 1 1 2 2 2 3 3 3 3 4
1 0 -1 -1 -1 -2 -3 -4 -6 -6 -8 -8 -8 -8 -7 -5 -6 -5 -5 -5 -5 -5 -6 -6 -5 -5 -3 -3 -3 -2 -2 -2 -2 -1 -1 0 1 1 2 2 2 2 3 3 3 3 4
1 -0 -1 -2 -2 -3 -3 -5 -6 -7 -8 -9 -9 -8 -7 -6 -6 -6 -5 -4 -5 -5 -6 -6 -5 -4 -4 -4 -3 -3 -2 -2 -2 -2 -1 -1 0 0 1 1 1 2 2 2 3 3 3
0 -0 -1 -2 -2 -3 -3 -4 -6 -7 -8 -8 -8 -8 -7 -7 -6 -6 -5 -5 -5 -5 -6 -5 -5 -4 -4 -4 -3 -3 -3 -3 -2 -2 -2 -1 -0 0 1 1 1 1 1 1 2 3 3
0 -0 -1 -2 -2 -3 -3 -3 -5 -6 -6 -7 -7 -7 -7 -7 -6 -5 -5 -5 -4 -5 -5 -5 -5 -5 -5 -4 -3 -4 -4 -3 -2 -2 -2 -1 -1 -0 -0 0 0 1 -0 1 -0 2 1
1 -0 -1 -2 -2 -2 -3 -3 -4 -5 -5 -5 -6 -5 -6 -5 -5 -5 -6 -5 -5 -5 -5 -5 -5 -5 -5 -4 -4 -3 -3 -3 -3 -2 -2 -2 -1 -1 -1 -1 1 1 -1 -0 -0 -1 1
1 0 -1 -1 -2 -2 -3 -3 -3 -3 -4 -4 -3 -4 -4 -4 -4 -4 -5 -5 -5 -5 -5 -5 -5 -5 -5 -5 -4 -4 -4 -4 -3 -2 -3 -2 -2 -3 -2 -0 -0 0 -1 -1 -1 -2 1
1 1 -0 -1 -1 -2 -2 -3 -3 -2 -3 -3 -3 -3 -3 -3 -4 -4 -4 -4 -4 -5 -5 -5 -5 -5 -5 -5 -5 -4 -4 -5 -4 -3 -2 -2 -2 -2 -1 -1 -0 -0 -1 -1 -1 -0 -1
1 1 1 -1 -1 -2 -2 -2 -2 -2 -2 -2 -3 -3 -3 -3 -4 -4 -4 -3 -4 -4 -5 -5 -5 -5 -5 -5 -5 -4 -4 -4 -5 -3 -4 -3 -3 -2 -2 -1 -1 -2 -2 -2 -2 -2 -1
1 1 1 1 -1 -1 -2 -2 -2 -2 -2 -2 -2 -2 -2 -3 -3 -4 -3 -3 -3 -3 -4 -5 -5 -5 -5 -5 -5 -4 -4 -3 -3 -5 -3 -4 -2 -2 -2 -2 -2 -2 -2 -2 -3 -3 -2
2 1 2 1 0 -0 -1 -1 -2 -2 -2 -2 -1 -2 -2 -3 -3 -3 -3 -3 -3 -3 -2 -5 -5 -5 -5 -5 -5 -4 -4 -3 -5 -4 -3 -4 -3 -3 -4 -4 -3 -3 -2 -3 -4 -4 -4
2 2 2 2 1 1 -0 -1 -1 -1 -2 -2 -2 -1 -1 -2 -3 -3 -3 -3 -3 -3 -5 -5 -5 -5 -5 -4 -5 -5 -4 -4 -4 -3 -3 -4 -3 -3 -4 -3 -3 -3 -2 -3 -3 -4 -3
2 2 2 2 2 1 1 -0 -0 -1 -1 -1 -1 -1 -1 -2 -2 -2 -2 -2 -3 -4 -6 -5 -5 -5 -5 -5 -4 -5 -5 -4 -4 -4 -4 -3 -3 -2 -2 -3 -3 -3 -3 -1 -1 -2 1
3 2 2 2 2 2 1 1 1 0 0 0 0 -0 -1 -1 -1 -2 -2 -2 -4 -6 -6 -5 -5 -5 -5 -5 -4 -5 -4 -4 -4 -4 -4 -3 -2 -3 -2 -3 -3 -3 -3 -2 -1 1 2
3 2 2 2 2 2 2 1 1 1 1 1 1 1 0 0 0 0 -1 -2 -5 -5 -5 -5 -4 -4 -4 -4 -4 -4 -3 -4 -4 -3 -4 -3 -2 -2 -2 -2 -3 -3 -3 -3 -3 -2 -2
4 3 3 3 2 2 2 2 2 1 1 1 1 1 0 0 0 0 0 -2 -4 -4 -4 -4 -4 -4 -3 -4 -4 -4 -3 -3 -2 -3 -3 -3 -3 -2 -2 -2 -2 -3 -3 -3 -3 -1 1
4 3 3 3 3 2 3 2 2 1 1 1 1 1 0 -0 -0 0 -0 -2 -3 -3 -2 -3 -4 -3 -3 -3 -4 -3 -3 -3 -3 -3 -3 -3 -3 -2 -1 -1 -2 -3 -3 -3 -3 -3 -0
3 4 3 3 3 2 3 3 2 2 2 1 1 1 1 0 0 0 -1 -1 -2 -2 -2 -2 -2 -2 -3 -3 -3 -3 -3 -3 -3 -3 -4 -2 -3 -4 -1 -2 -2 -3 -3 -3 -3 -2 -2
3 3 3 3 3 3 2 3 3 2 2 2 2 1 1 1 -0 -0 -0 -1 -1 -1 -1 -1 -1 -1 -1 -1 -3 -2 -2 -2 -2 -2 -3 -3 -3 -2 -0 -2 -3 -3 -3 -3 -4 -4 -3
3 3 3 3 3 3 3 3 3 2 3 2 2 1 1 1 1 -0 -0 -0 -1 -1 -1 -1 -1 -1 -1 -1 -0 -1 -1 -1 -1 -2 -2 -2 -3 -3 -1 0 -1 -2 -2 -3 -4 -4 -1
3 3 3 3 3 3 3 3 3 3 2 2 2 2 2 1 1 1 -0 -0 -0 -0 -1 -0 -0 -1 -1 -1 -1 -0 -0 0 0 -0 -1 -1 -1 -2 -0 0 -1 -2 -2 -2 -3 -2 -2
2 3 3 3 3 3 3 3 3 3 2 2 2 2 2 2 1 1 1 0 -0 -0 -0 -1 -1 -1 -1 -2 -2 -3 -2 -2 -2 -1 -1 -1 -2 -2 1 2 1 1 1 -1 -2 -2 -3
2 2 3 3 3 3 3 3 3 3 3 2 2 2 2 2 1 1 1 1 1 0 0 -0 -0 -0 -0 -0 -0 -0 -0 -0 -1 -1 -3 -2 -2 -2 -1 0 0 0 4 3 1 1 1
2 2 2 2 2 3 3 2 3 3 2 3 2 1 2 2 1 1 1 1 1 0 0 0 0 0 0 0 1 1 1 1 1 1 -1 -2 -4 -4 -2 -0 0 3 3 2 2 1 1
1 1 1 2 2 2 2 2 2 2 3 2 2 2 1 1 1 1 1 1 0 0 1 1 1 1 1 1 1 1 1 2 2 2 1 -1 -3 -4 -3 -1 0 1 1 -0 -1 -0 -0
1 1 1 1 1 2 2 2 2 1 2 2 1 1 1 1 1 1 1 1 0 0 -0 0 0 0 0 0 -1 -1 0 1 -0 0 1 0 -1 -3 -2 -2 1 0 1 0 0 -0 -1
0 1 1 1 1 1 1 2 1 1 1 2 1 1 1 1 1 1 0 0 0 -0 -1 -0 -0 -1 -1 -1 -3 -2 -1 -1 -1 -1 -1 -1 -2 -3 -3 -2 -1 -0 -0 -0 -1 -1 -1
-0 0 1 1 1 0 0 1 1 -0 0 1 1 0 0 1 1 1 1 0 0 -0 -1 -1 -1 -1 -1 -2 -3 -3 -3 -2 -2 -1 -0 -1 -2 -3 -3 -2 -2 0 -0 -1 -0 -2 -2
-1 -1 -0 -0 0 -0 -0 -0 0 -1 -1 -0 0 0 -0 -0 0 1 1 1 1 0 -1 -1 -2 -2 -2 -2 -3 -3 -3 -3 -2 -2 -2 -2 -1 -0 -1 -0 1 0 -0 -1 -2 -2 -2

GFSGBSN_700_temp_120.txt.gz
Temp
1 -0 -1 -1 -1 -2 -3 -4 -6 -8 -8 -8 -6 -5 -5 -5 -4 -4 -4 -4 -3 -3 -3 -3 -3 -3 -3 -3 -3 -2 -1 -1 -1 -1 0 1 1 -0 1 1 3 3 3 3 4 4 4
1 -0 -1 -1 -1 -2 -2 -4 -6 -7 -6 -6 -5 -5 -5 -4 -4 -4 -4 -5 -5 -4 -4 -4 -4 -3 -3 -3 -3 -2 -2 -2 -2 -1 -0 -0 -0 0 -1 2 1 2 4 3 4 4 4
0 0 -1 -1 -2 -2 -2 -3 -4 -5 -5 -5 -5 -5 -4 -5 -5 -4 -4 -4 -5 -5 -5 -5 -3 -3 -2 -3 -3 -2 -2 -2 -2 -2 -1 0 1 1 1 2 2 2 2 3 3 4 4
1 0 -0 -1 -1 -2 -2 -3 -3 -4 -4 -4 -4 -4 -5 -4 -4 -4 -4 -4 -5 -5 -5 -5 -4 -4 -3 -3 -3 -3 -2 -2 -2 -2 -1 -1 -0 1 1 1 2 2 2 2 2 3 3
1 0 0 -1 -1 -2 -2 -2 -3 -3 -3 -3 -3 -3 -3 -4 -4 -4 -4 -5 -5 -5 -5 -4 -4 -4 -4 -3 -3 -3 -3 -2 -2 -2 -1 -1 -1 0 0 1 1 1 1 1 1 2 2
1 1 0 -0 -1 -1 -1 -2 -2 -3 -3 -3 -3 -3 -3 -3 -4 -4 -4 -5 -5 -5 -5 -5 -4 -4 -4 -4 -4 -3 -3 -3 -2 -2 -1 -1 -1 -0 0 1 0 1 0 1 1 0 2
2 1 1 0 -0 -1 -1 -1 -1 -2 -2 -2 -2 -2 -3 -3 -4 -4 -4 -4 -4 -5 -5 -5 -5 -4 -5 -5 -4 -4 -4 -3 -3 -2 -2 -1 -1 -2 -1 0 1 1 1 0 -0 -1 1
2 2 1 1 0 -0 -1 -1 -1 -2 -2 -1 -2 -3 -2 -3 -4 -4 -3 -3 -3 -4 -5 -5 -5 -5 -5 -5 -4 -4 -4 -3 -3 -2 -2 -2 -2 -1 -0 -0 0 0 -0 -0 -1 -1 0
2 2 1 1 0 0 -0 -1 -1 -1 -1 -1 -1 -2 -2 -2 -3 -4 -3 -3 -3 -3 -5 -6 -5 -5 -5 -5 -5 -4 -4 -4 -4 -3 -3 -2 -2 -1 -1 -1 -1 -1 -1 -2 -2 -1 -0
2 2 2 1 1 0 0 -0 -1 -1 -1 -1 -1 -1 -2 -2 -3 -3 -3 -3 -3 -3 -4 -5 -5 -5 -5 -5 -4 -4 -3 -3 -3 -3 -3 -2 -2 -2 -2 -2 -1 -2 -2 -1 -3 -2 -1
3 2 2 2 1 1 1 0 -0 -1 -1 -1 -1 -1 -1 -2 -2 -2 -2 -3 -3 -3 -5 -5 -5 -5 -5 -4 -4 -4 -4 -3 -2 -3 -2 -3 -2 -2 -3 -3 -2 -3 -2 -2 -3 -4 -4
3 3 2 2 2 1 1 1 0 0 -0 -0 -1 -1 -2 -2 -2 -3 -2 -2 -3 -3 -5 -5 -5 -5 -5 -4 -4 -4 -3 -3 -3 -3 -3 -3 -2 -2 -3 -2 -2 -2 -2 -3 -3 -3 -4
4 3 3 3 2 2 2 2 1 1 1 1 -0 -1 -2 -2 -2 -2 -2 -2 -2 -5 -5 -5 -5 -5 -5 -5 -4 -4 -4 -4 -4 -4 -4 -3 -3 -2 -2 -4 -3 -3 -3 -2 -1 -3 -4
4 4 3 3 3 2 2 2 2 1 1 1 1 1 0 -1 -1 -1 -1 -1 -5 -5 -5 -4 -5 -4 -4 -4 -4 -4 -4 -4 -4 -4 -4 -3 -2 -2 -2 -3 -3 -3 -3 -2 -2 -2 -2
4 4 4 3 3 3 2 2 2 2 1 1 1 1 1 0 0 0 0 -1 -5 -5 -4 -4 -3 -4 -3 -4 -4 -3 -4 -4 -3 -3 -3 -3 -2 -2 -2 -3 -3 -3 -3 -3 -3 -1 -3
4 4 4 4 3 3 3 3 2 2 2 1 1 1 1 0 -0 1 2 -2 -3 -3 -3 -3 -3 -3 -3 -3 -3 -3 -3 -3 -3 -3 -3 -3 -3 -2 -2 -2 -2 -2 -3 -3 -3 -3 -2
3 3 4 4 3 3 3 3 3 2 2 2 1 1 1 0 0 1 0 -1 -2 -2 -1 -2 -3 -3 -3 -3 -3 -3 -3 -2 -2 -2 -2 -2 -3 -2 -2 -1 -2 -2 -3 -3 -3 -2 -2
3 3 4 4 4 3 3 3 3 3 3 3 2 1 1 1 1 0 -0 -1 -1 -1 -1 -1 -2 -2 -2 -2 -2 -2 -3 -2 -2 -2 -3 -3 -3 -2 -1 -1 -1 -2 -2 -3 -3 -2 -2
3 3 3 4 4 4 3 3 3 3 3 3 2 2 1 1 2 1 -0 -1 -1 -1 -1 -1 -1 -1 -1 -2 -2 -2 -2 -1 -1 -2 -2 -2 -2 -2 -1 -1 -2 -2 -2 -2 -3 -4 -3
3 3 3 3 4 3 4 3 3 3 3 3 3 2 2 2 1 1 1 0 -0 -1 -1 -1 -1 -1 -0 -2 -1 -1 -2 -1 -1 -1 -2 -2 -2 -2 -1 0 -1 -1 -2 -2 -2 -3 -3
3 3 3 3 3 4 3 3 3 2 3 3 3 3 2 2 2 1 1 1 1 1 0 -0 -0 -1 -1 -2 -1 -2 -0 -1 -0 -1 -1 -1 -1 -1 -1 -0 -1 -1 -1 -2 -2 -0 -3
2 2 3 3 3 3 3 3 3 2 2 2 3 2 2 2 2 2 1 1 1 1 1 1 0 0 -0 -0 0 0 0 0 -1 0 -0 -1 -1 -1 1 1 1 -0 0 -0 -2 -2 -2
2 2 2 3 3 3 3 3 3 3 2 2 2 3 2 2 2 1 2 1 1 1 1 1 1 1 1 1 1 0 1 1 0 0 -1 -2 -2 -2 -1 0 0 1 1 2 0 -0 -1
1 1 1 2 2 2 2 2 3 3 3 2 1 2 2 2 1 1 1 1 1 1 1 1 1 1 1 1 1 1 2 2 1 2 0 -1 -3 -4 -3 -1 -5 2 2 2 1 1 1
2 1 1 1 2 2 2 2 2 2 2 2 2 1 1 2 1 1 1 1 1 1 1 1 0 1 0 0 0 1 1 1 2 2 1 -1 -3 -3 -3 -2 -0 2 2 1 1 1 0
1 1 1 1 1 1 1 2 2 1 2 2 2 1 0 1 1 1 0 0 1 1 1 1 1 0 -0 -0 -1 -1 -0 1 -0 -0 -0 -1 -2 -4 -3 -2 -2 1 1 1 0 -0 0
1 1 1 0 0 0 1 1 1 1 1 1 1 1 1 0 0 1 1 0 -0 -1 -0 -0 1 0 0 -1 -2 -3 -2 -1 -1 -1 -1 -1 -2 -3 -3 -4 -1 1 1 0 -1 1 0
-1 -0 -0 0 -0 -1 -0 -0 0 1 0 -0 0 1 1 1 0 0 0 0 1 -0 -1 -2 -2 -1 -1 -1 -2 -2 -2 -2 -2 -1 -1 -1 -1 -3 -4 -3 -3 2 1 1 1 -0 -1
-1 -1 -1 -0 -1 -1 -1 -1 -1 -1 -0 -1 -1 -0 1 1 0 0 0 -0 0 0 -1 -1 -2 -2 -1 -2 -2 -3 -3 -2 -2 -3 -2 -2 -1 -1 -1 1 2 1 1 0 -0 -1 -1

GFSGBSN_700_temp_123.txt.gz
Temp
1 1 -0 -0 -0 -1 -1 -2 -3 -3 -3 -3 -3 -3 -4 -4 -4 -4 -3 -3 -3 -5 -3 -1 -2 -3 -2 -2 -2 -2 -2 -2 -1 -1 0 1 1 2 2 3 3 3 3 4 4 4 4
1 1 0 -0 -0 -1 -1 -2 -2 -2 -2 -2 -3 -3 -4 -4 -4 -4 -4 -3 -3 -5 -4 -4 -3 -3 -3 -2 -2 -2 -2 -2 -1 -1 0 1 0 1 1 2 2 3 3 3 4 4 4
2 1 0 0 -0 -0 -1 -2 -2 -2 -3 -3 -3 -3 -3 -3 -4 -4 -4 -4 -4 -4 -5 -4 -3 -3 -3 -3 -3 -2 -2 -2 -1 -1 -0 1 1 2 2 2 2 2 3 3 3 3 3
2 1 1 0 0 -0 -1 -1 -2 -2 -2 -3 -3 -3 -4 -4 -4 -4 -4 -4 -4 -4 -4 -4 -4 -3 -3 -3 -3 -2 -2 -2 -2 -1 -1 -0 1 1 1 2 2 2 2 2 3 3 3
2 2 1 1 0 -0 -1 -1 -2 -2 -2 -2 -3 -3 -4 -4 -5 -4 -4 -4 -4 -5 -5 -3 -3 -3 -3 -3 -3 -2 -2 -2 -2 -2 -1 -1 -0 -0 1 1 1 1 2 2 3 3 3
3 2 1 1 1 0 -0 -1 -1 -1 -2 -2 -1 -3 -3 -4 -4 -3 -4 -4 -5 -4 -4 -4 -3 -2 -4 -3 -3 -2 -3 -2 -2 -2 -1 -1 -1 -0 0 1 1 1 2 1 1 1 3
3 3 2 1 1 1 -0 -0 -1 -1 -1 -2 -1 -2 -2 -3 -3 -4 -4 -4 -3 -3 -1 -3 -4 -3 -5 -4 -4 -3 -3 -3 -2 -2 -1 -1 -0 -1 -0 1 1 1 1 0 -0 1 2
3 3 3 2 1 1 0 -0 -0 -1 -1 -1 -1 -1 -2 -3 -2 -3 -3 -2 -4 -4 -6 -6 -5 -3 -4 -3 -3 -3 -3 -3 -2 -2 -2 -1 -0 -1 -1 -0 0 0 1 -0 -0 0 1
3 3 3 2 2 1 1 0 -0 -1 -1 -1 -2 -2 -1 -2 -3 -2 -2 -3 -3 -3 -4 -5 -5 -5 -4 -4 -4 -4 -4 -3 -3 -3 -2 -1 -2 -1 -1 -0 -0 -0 -0 -0 -0 1 -0
3 3 3 3 2 2 1 1 0 -0 -0 -1 -1 -2 -2 -2 -2 -2 -2 -2 -2 -3 -3 -5 -4 -4 -4 -4 -4 -4 -3 -2 -3 -2 -2 -2 -1 -1 -1 -0 -1 -1 -1 -1 -1 -0 -1
3 3 3 3 2 2 2 1 1 1 0 -0 -1 -2 -2 -2 -3 -2 -2 -2 -2 -2 -5 -4 -5 -4 -4 -4 -3 -4 -3 -2 -2 -2 -1 -2 -2 -2 -1 -1 -1 -1 -1 -1 -2 -2 -3
4 4 3 3 2 2 2 2 2 1 1 1 -0 -1 -2 -2 -2 -2 -2 -2 -2 -2 -6 -5 -5 -5 -4 -4 -3 -4 -3 -2 -2 -2 -2 -2 -2 -2 -2 -2 -2 -1 -2 -2 -3 -3 -4
4 4 4 3 3 2 2 2 2 2 1 1 1 1 -0 -1 -1 -1 -1 -1 -2 -5 -5 -5 -5 -4 -4 -4 -4 -4 -3 -2 -2 -2 -3 -2 -2 -2 -2 -2 -2 -2 -3 -3 -3 -3 -5
4 4 4 4 3 3 2 2 2 2 2 2 1 1 1 0 0 0 0 -0 -4 -5 -4 -4 -4 -4 -4 -4 -4 -4 -4 -4 -3 -3 -4 -3 -2 -2 -3 -3 -3 -3 -3 -3 -6 -2 -4
4 4 4 4 4 3 3 2 3 2 2 2 1 1 2 1 1 1 1 -0 -4 -4 -4 -3 -3 -3 -3 -3 -3 -3 -3 -3 -2 -2 -3 -3 -2 -2 -3 -2 -3 -3 -3 -3 -3 -3 -3
4 4 4 4 4 4 3 3 3 3 2 2 2 2 2 1 1 1 2 -1 -3 -3 -3 -3 -3 -3 -3 -3 -2 -2 -2 -3 -2 -2 -3 -4 -3 -2 -2 -2 -2 -3 -3 -3 -3 -3 -4
4 4 4 4 4 4 4 4 3 3 3 3 2 2 2 2 1 2 1 -2 -2 -2 -2 -2 -3 -3 -3 -3 -3 -2 -2 -2 -2 -2 -2 -3 -4 -2 -3 -2 -2 -3 -3 -3 -3 -3 -3
4 4 4 4 4 4 4 4 4 3 3 3 2 2 2 2 2 2 1 0 -0 -1 -1 -1 -2 -2 -2 -2 -2 -2 -2 -2 -2 -2 -4 -3 -3 -2 -2 -1 -2 -2 -2 -2 -3 -2 -3
3 4 4 4 4 4 4 4 4 4 3 3 3 2 2 2 2 1 1 1 0 0 0 -0 -1 -1 -1 -2 -2 -2 -1 -1 -2 -1 -2 -2 -2 -1 -1 -1 -2 -2 -1 -2 -2 -3 -3
3 3 3 3 4 4 4 4 4 3 4 3 3 3 3 2 2 2 1 1 1 0 0 0 0 0 -0 -0 -1 -1 -0 -0 -1 -0 -1 -1 -1 -0 0 1 -0 -1 -1 -2 -2 -3 -2
3 3 3 3 3 4 4 4 3 4 3 3 3 3 3 2 2 2 2 1 1 1 1 0 0 1 1 1 0 0 0 0 1 0 -0 -1 -0 -0 0 1 0 0 0 -1 -2 -1 -3
3 3 3 3 3 3 3 4 4 3 3 3 3 2 3 3 3 2 1 2 1 1 1 1 1 1 0 1 0 0 0 -0 -0 0 -1 -1 -1 -1 1 2 1 0 1 0 -0 -0 -1
2 2 2 2 3 3 3 3 3 3 3 3 3 2 2 2 3 2 2 1 1 1 1 1 1 1 1 1 1 0 1 1 0 -0 -1 -2 -2 -2 -1 0 0 1 4 2 1 2 2
2 2 2 2 2 2 3 3 3 3 3 2 2 2 2 2 2 2 2 2 1 0 1 1 0 0 1 1 1 1 1 2 1 1 -0 -1 -3 -4 -4 -2 -6 3 3 2 2 2 2
2 2 2 2 1 1 2 2 2 2 2 2 1 1 2 1 1 1 1 1 2 2 1 0 0 0 0 0 0 1 2 2 1 1 0 -0 -3 -4 -3 -4 -0 3 4 2 2 2 2
1 1 1 2 1 1 1 1 1 1 1 1 1 1 1 1 1 1 1 1 1 1 1 1 1 -0 -0 -1 -1 -1 0 0 0 0 -0 -1 -3 -4 -4 -4 -3 2 1 1 1 2 2
-0 -0 0 0 1 1 0 0 0 0 0 0 0 0 -0 0 0 -0 0 1 1 1 1 0 1 0 -0 -1 -2 -2 -2 -1 -1 -1 -1 -1 -4 -4 -5 -5 -1 2 2 1 -0 2 1
-1 -1 -1 -1 -1 -0 -0 0 -0 -1 -1 -1 -1 -1 -0 -0 -0 0 -0 -1 -0 1 0 -0 -1 -1 -1 -2 -2 -2 -3 -2 -2 -1 -0 -1 -1 -2 -5 -6 -3 3 2 1 1 1 0
-1 -2 -2 -2 -2 -1 -1 -0 -0 -1 -1 -1 -2 -1 -1 -1 -0 -0 -0 0 0 -1 -0 0 -0 -0 -2 -2 -2 -3 -3 -3 -2 -2 -1 -2 -0 -0 -0 2 3 2 2 1 0 -0 -0

GFSGBSN_700_temp_129.txt.gz
Temp
3 2 2 1 1 0 -0 -0 -1 -1 -1 -2 -3 -4 -4 -4 -4 -4 -3 -4 -3 -3 -3 -3 -3 -2 -3 -2 -2 -2 -1 -0 1 2 2 3 3 3 3 3 3 3 4 4 4 4 5
3 2 2 2 1 0 -0 -0 -1 -1 -1 -2 -3 -4 -4 -4 -4 -4 -4 -4 -3 -3 -3 -3 -3 -3 -2 -2 -2 -2 -2 -1 1 1 1 1 2 2 3 3 3 3 4 4 4 4 5
3 3 2 2 1 0 -0 -0 -1 -2 -2 -2 -2 -3 -4 -4 -4 -4 -4 -4 -4 -4 -3 -3 -3 -3 -2 -2 -2 -2 -2 -1 0 1 1 1 1 2 2 3 3 3 3 3 4 4 4
3 3 3 2 2 1 -0 -0 -1 -2 -2 -2 -2 -2 -3 -4 -4 -5 -4 -3 -4 -4 -3 -3 -2 -2 -2 -2 -2 -3 -2 -1 -0 -0 0 1 1 2 3 3 3 3 3 3 3 4 4
3 3 3 2 2 1 0 -0 -1 -1 -2 -2 -3 -3 -3 -4 -4 -4 -4 -5 -4 -4 -3 -3 -3 -2 -2 -2 -2 -3 -1 -1 -1 -0 -0 1 1 1 2 2 2 2 2 3 3 4 4
3 3 3 3 2 2 1 -0 -1 -1 -1 -3 -3 -3 -3 -3 -3 -3 -3 -4 -4 -3 -3 -3 -2 -2 -3 -3 -3 -2 -2 -1 -1 -0 -0 0 1 1 1 2 2 3 3 3 3 3 3
3 3 3 3 2 2 2 1 -0 -1 -1 -2 -3 -3 -4 -4 -3 -3 -3 -3 -3 -3 -1 -2 -3 -3 -2 -3 -3 -2 -2 -1 -1 -0 0 0 1 0 1 1 2 2 2 2 2 3 3
4 4 3 3 3 2 2 1 1 -0 -1 -1 -2 -3 -3 -3 -4 -4 -2 -0 -2 -3 -3 -3 -3 -3 -3 -2 -3 -2 -2 -1 -1 -0 -0 -0 0 0 0 1 1 1 1 2 2 2 2
4 4 4 3 3 3 2 2 1 1 0 -1 -1 -2 -3 -2 -2 -2 -2 -1 -2 -2 -2 -3 -3 -3 -3 -3 -2 -2 -1 -1 -1 -0 -1 0 -0 -0 0 0 0 0 1 1 1 1 2
4 4 4 3 3 3 3 2 2 1 1 0 -0 -1 -1 -2 -2 -1 -1 -1 -1 -1 -2 -3 -2 -3 -3 -2 -2 -2 -2 -1 -1 -1 -1 -0 -0 -0 -0 -0 0 -0 -0 -0 0 0 0
4 4 4 4 3 4 3 3 2 2 1 1 1 0 -0 -0 -1 -1 -0 -1 -1 -1 -6 -3 -3 -3 -2 -1 -2 -2 -2 -2 -1 -1 -1 -1 -1 -1 -0 -0 -0 -0 -0 -0 -1 -1 -1
4 5 4 4 3 3 4 3 3 3 2 1 2 1 0 0 0 -1 -1 -0 -1 -1 -6 -3 -4 -3 -2 -2 -1 -2 -1 -1 -1 -1 -1 -1 -1 -1 -1 -1 -1 -1 -1 -1 -2 -2 -5
4 4 5 4 4 3 3 4 3 3 3 2 2 2 1 1 1 1 1 0 -0 -3 -4 -4 -4 -4 -3 -2 -1 -2 -1 -1 -1 -2 -2 -2 -1 -1 -1 -1 -1 -1 -1 -2 -5 -6 -6
4 4 4 5 4 4 4 4 4 4 3 3 3 2 2 2 2 2 2 2 -0 -4 -4 -3 -3 -3 -2 -2 -2 -1 -1 -1 -1 -1 -1 -2 -2 -2 -2 -2 -2 -2 -2 -3 -6 -8 -6
4 4 4 4 5 4 4 4 4 4 4 3 3 3 3 3 3 3 3 3 -1 -2 -2 -3 -3 -2 -2 -2 -2 -2 -1 -1 -1 -1 -1 -1 -2 -2 -2 -2 -2 -2 -2 -3 -4 -4 -5
4 4 4 4 4 5 5 4 4 4 4 4 3 3 3 3 3 3 4 1 -1 -1 -1 -1 -2 -2 -2 -2 -2 -2 -1 -1 -1 -1 -1 -1 -2 -2 -2 -2 -2 -2 -2 -3 -4 -6 -6
4 4 4 5 5 4 5 5 4 4 4 4 4 4 3 3 3 3 3 0 -1 -1 -2 -2 -2 -1 -1 -2 -2 -2 -1 -1 -1 -0 -0 -1 -1 -1 -2 -1 -1 -2 -3 -3 -3 -4 -5
4 4 4 5 5 5 4 5 5 4 4 4 4 4 3 3 3 3 2 1 0 -0 -0 -1 -1 -1 -1 -1 -1 -1 -1 -1 -1 -1 -1 -0 -0 -0 -0 -1 -1 -2 -2 -2 -2 -3 -3
4 4 4 4 4 5 5 5 5 5 4 4 4 4 3 3 3 2 1 1 0 -0 -0 -0 -0 -1 -1 -1 -1 -0 -0 -0 -0 -0 0 -0 -1 -1 -1 -1 -1 -2 -0 -1 -2 -2 -3
3 4 4 4 4 4 4 4 5 4 5 4 4 3 3 3 3 2 2 1 1 0 0 0 -0 -0 -0 -0 -1 -0 -0 -0 -1 -1 -1 -1 -1 0 1 1 -0 -1 -0 -1 -2 -3 -3
3 3 3 3 4 4 4 4 4 4 4 4 4 3 2 2 2 2 2 2 1 1 1 0 0 0 -0 0 -0 -0 -0 -1 -0 -1 -1 -2 -1 -1 -0 0 -0 -0 -1 -2 -2 -1 -3
3 3 2 2 3 3 3 3 3 3 4 4 3 3 3 2 2 2 2 2 1 1 1 1 1 0 -0 -0 -1 -0 -0 -0 -1 -0 -1 -2 -2 -2 -0 1 0 0 1 1 -0 -2 -2
3 3 2 2 2 2 2 3 3 3 3 3 3 3 2 2 2 2 1 1 1 1 1 1 0 0 0 0 -0 -0 -0 -1 -1 -1 -2 -3 -3 -3 -2 -1 -1 1 3 4 4 3 2
2 2 2 2 2 2 2 2 2 2 2 2 3 2 2 2 1 1 1 1 1 0 0 1 0 0 0 -0 0 0 1 1 0 -0 -2 -3 -4 -4 -4 -3 -6 3 3 3 3 3 2
2 2 2 2 2 2 2 2 2 2 2 2 2 2 2 2 1 1 1 1 0 0 1 0 0 0 -0 -0 -0 0 1 1 1 1 -0 -1 -4 -4 -4 -5 0 4 3 4 3 4 3
2 2 2 2 1 1 1 1 1 2 2 2 2 2 2 1 1 0 -0 -0 1 0 0 0 0 0 -0 -1 -1 -1 1 1 0 -0 0 -1 -3 -4 -6 -5 -4 3 2 2 2 3 3
1 2 2 2 1 1 -0 -0 0 0 0 1 1 1 1 1 1 0 0 -0 -1 -1 -0 -0 -1 -0 -0 -1 -2 -2 -1 -1 -0 -1 -0 -2 -4 -4 -6 -6 -2 3 2 1 0 3 2
1 1 1 0 0 -0 -0 -0 -1 -1 -1 -1 -0 0 0 1 0 0 -0 -0 -1 -1 -1 -1 -1 -0 -1 -1 -1 -1 -1 -1 -1 -1 -0 -0 -1 -3 -6 -6 -3 4 3 2 1 1 -0
0 0 -0 -0 -1 -1 -1 -1 -2 -2 -2 -2 -2 -1 -0 0 -0 -0 0 0 -0 -1 -1 -1 -2 -1 -1 -1 -2 -2 -2 -2 -1 -1 -1 -2 -0 -0 -1 2 3 2 1 0 -0 0 -1

GFSGBSN_700_temp_132.txt.gz
Temp
3 3 2 1 1 -0 -1 -1 -1 -1 -2 -2 -3 -4 -4 -4 -4 -4 -4 -4 -3 -4 -3 -3 -3 -3 -2 -2 -2 -2 -1 0 1 1 2 2 2 3 3 2 3 3 4 4 5 5 5
3 3 2 2 1 0 -1 -1 -1 -1 -2 -2 -3 -3 -3 -4 -4 -4 -3 -3 -3 -4 -2 -2 -3 -3 -2 -2 -2 -2 -1 -0 1 1 2 2 2 2 3 3 2 3 4 4 4 5 5
3 3 2 2 1 1 -0 -1 -1 -2 -1 -2 -3 -3 -3 -4 -4 -4 -4 -3 -4 -3 -2 -1 -1 -2 -1 -2 -2 -2 -1 -0 0 1 2 2 2 2 2 3 3 3 3 4 4 4 5
3 3 2 2 2 1 0 -0 -1 -2 -1 -2 -3 -4 -4 -3 -3 -3 -4 -3 -3 -3 -3 -3 -3 -2 -2 -3 -2 -3 -1 -1 -0 0 1 1 2 2 2 3 2 3 3 3 4 4 4
4 3 3 2 2 1 1 -0 -1 -2 -2 -2 -3 -3 -3 -3 -3 -3 -3 -4 -3 -3 -3 -3 -2 -2 -2 -2 -2 -2 -1 -0 -0 0 0 1 1 2 2 2 2 2 2 3 3 3 4
4 3 3 2 2 1 1 1 -0 -1 -2 -2 -2 -3 -3 -3 -3 -3 -3 -4 -2 -3 -3 -3 -2 -2 -3 -2 -3 -2 -1 -0 0 0 0 0 1 1 1 2 2 2 3 3 3 3 4
4 3 3 3 2 2 1 1 0 -1 -1 -2 -1 -2 -3 -2 -2 -2 -2 -3 -2 -2 -1 -2 -2 -1 -3 -3 -3 -2 -1 -1 -0 0 0 0 1 1 1 1 2 2 2 3 3 3 3
4 4 3 3 3 2 2 1 1 0 -0 -1 -1 -1 -2 -3 -3 -2 -1 0 -2 -3 -3 -3 -3 -3 -3 -2 -2 -1 -1 -1 -1 -0 -0 0 1 1 1 1 2 2 2 2 2 2 3
5 4 4 3 3 3 2 2 2 1 0 -0 -1 -1 -1 -2 -2 -2 -1 -2 -2 -2 -3 -3 -3 -2 -2 -3 -2 -2 -1 -1 -1 -0 -0 1 0 1 1 1 1 1 1 1 1 2 2
5 4 4 4 3 3 3 3 2 2 1 1 -0 -0 -0 0 -1 -0 -0 -1 -1 -1 -2 -3 -2 -3 -3 -2 -2 -2 -1 -1 -1 -0 -0 -0 -0 -0 1 1 1 1 1 1 1 1 1
4 5 5 4 4 4 3 3 3 2 2 1 1 0 0 0 0 0 0 0 0 -0 -6 -3 -3 -2 -2 -1 -2 -2 -2 -1 -1 -1 -0 -1 -1 -0 0 0 1 1 1 1 1 1 -0
4 5 5 5 4 4 4 4 3 3 3 2 2 2 1 1 1 1 0 1 0 -1 -5 -3 -3 -3 -2 -2 -1 -2 -1 -1 -1 -0 -1 -1 -1 -1 -0 -0 0 0 0 -0 -1 -1 -5
4 4 5 5 5 4 4 4 4 4 4 3 3 2 2 2 2 2 1 1 0 -3 -3 -3 -3 -3 -2 -2 -2 -2 -2 -1 -1 -1 -1 -1 -1 -1 -1 -1 -1 -0 -0 -1 -4 -6 -6
4 4 5 5 5 4 4 4 4 4 4 4 4 3 3 3 3 3 2 2 -1 -4 -4 -2 -2 -2 -2 -2 -2 -2 -2 -1 -1 -1 -1 -1 -2 -1 -1 -1 -1 -1 -0 -1 -5 -7 -7
4 5 4 5 5 5 5 4 4 4 4 4 4 4 4 4 4 3 3 2 -2 -3 -3 -3 -3 -2 -2 -2 -2 -2 -1 -1 -1 -1 -1 -1 -2 -1 -1 -1 -1 -1 -2 -2 -3 -4 -5
4 5 5 4 5 5 5 4 4 4 4 4 4 4 4 4 4 4 4 1 -1 -2 -2 -3 -2 -2 -2 -1 -1 -1 -1 -1 -1 -1 -1 -1 -1 -2 -2 -2 -2 -2 -2 -2 -4 -6 -7
4 4 5 5 5 5 5 5 4 4 4 4 4 4 4 4 4 4 4 1 0 -1 -1 -2 -2 -2 -2 -2 -2 -1 -1 -1 -1 -1 -1 -1 -1 -1 -2 -1 -1 -2 -3 -3 -3 -4 -7
4 4 4 5 5 5 4 5 4 4 4 4 4 4 4 3 4 4 3 2 2 1 0 0 -0 -1 -1 -1 -2 -2 -2 -2 -1 -1 -1 -1 -1 -1 -1 -1 -2 -2 -2 -2 -2 -4 -4
4 4 4 4 4 4 4 4 4 4 4 4 4 4 3 3 3 3 3 2 2 2 1 1 1 1 0 -0 -1 -1 -1 -1 -1 -1 -1 -1 -0 -0 -1 -1 -1 -1 -0 -1 -2 -3 -4
4 4 4 4 4 4 4 4 4 4 4 4 4 4 3 3 3 3 2 2 2 2 1 1 1 1 1 1 0 0 0 0 -0 -0 -1 -1 -1 -0 1 0 -0 -1 -0 -1 -2 -3 -3
3 3 3 3 3 3 4 4 3 3 3 3 3 3 3 3 3 2 2 2 1 1 1 1 1 1 1 1 1 1 1 0 0 0 -0 -1 -1 -0 0 0 -1 -0 -1 -1 -2 -1 -3
3 3 3 3 3 3 3 3 3 3 3 3 3 2 2 2 2 2 2 2 1 1 1 1 1 1 1 0 -0 0 0 0 -0 0 -0 -1 -1 -2 -0 1 0 -0 1 0 -1 -2 -2
3 3 3 2 2 3 2 2 2 3 3 3 3 3 2 2 2 2 1 1 1 1 1 1 0 -0 0 0 0 0 -0 -0 -1 -1 -2 -3 -3 -3 -2 -1 -1 1 4 3 3 3 3
2 2 2 2 2 2 3 2 2 2 2 2 2 2 2 2 1 1 1 1 0 0 0 0 0 -0 -0 -1 -1 -0 -0 -0 -1 -1 -2 -3 -4 -4 -4 -2 -6 4 4 3 3 3 3
1 2 2 2 2 2 2 3 2 1 1 1 1 1 1 2 1 1 1 1 1 -0 0 -0 -0 -0 -0 -1 -1 -0 1 1 0 -0 -1 -2 -4 -5 -4 -5 1 3 2 3 3 4 3
1 1 1 2 2 2 2 2 1 0 0 0 0 1 0 0 0 0 -0 -0 0 0 0 0 -0 -0 -0 -1 -1 -1 0 0 -0 -1 -1 -2 -4 -6 -6 -6 -4 2 2 2 1 3 3
1 0 0 0 1 1 1 1 0 -0 -1 -1 -1 -0 -0 -0 -1 -1 -1 -1 -1 -1 -1 -0 0 -0 -1 -1 -2 -2 -1 -1 -1 -1 -1 -2 -4 -4 -6 -6 0 3 2 1 0 1 0
-0 -0 -0 -1 -0 0 0 0 -0 -0 -1 -2 -2 -2 -1 -1 -1 -1 -1 -1 -2 -2 -2 -2 -2 -0 -1 -2 -1 -1 -1 -1 -1 -0 0 -0 -1 -3 -7 -6 -3 2 2 0 -0 -1 -1
-0 -0 -0 -0 -0 -0 0 0 -0 -1 -1 -2 -2 -3 -2 -2 -1 -1 -1 -1 -1 -1 -2 -2 -2 -2 -2 -2 -2 -2 -2 -2 -1 -1 -0 -2 -0 -0 -0 2 2 1 0 -0 -1 -2 -1

GFSGBSN_700_temp_135.txt.gz
Temp
3 3 3 2 1 0 -0 -1 -2 -2 -2 -2 -3 -2 -3 -4 -4 -4 -3 -3 -3 -3 -3 -3 -3 -3 -3 -2 -3 -2 -1 0 1 1 2 2 2 3 3 3 3 4 4 5 5 6 6
3 3 3 2 1 1 -0 -0 -2 -2 -2 -2 -2 -2 -3 -4 -4 -4 -3 -3 -3 -3 -3 -3 -3 -2 -2 -2 -3 -2 -1 -0 1 1 2 2 2 2 3 3 2 3 4 5 5 5 5
3 3 3 2 2 1 0 -0 -1 -2 -2 -2 -2 -2 -3 -4 -4 -4 -4 -2 -2 -2 -2 -2 -2 -2 -2 -3 -3 -1 -1 -0 0 1 2 2 2 2 3 3 3 3 4 4 4 5 5
4 3 3 2 2 1 1 -0 0 -1 -2 -2 -2 -3 -2 -3 -3 -4 -3 -3 -4 -3 -2 -2 -2 -2 -2 -2 -2 -2 -1 -0 0 0 1 2 2 2 3 3 2 3 3 3 4 4 4
4 4 3 3 2 2 1 0 0 -0 -1 -2 -2 -1 -3 -3 -3 -3 -4 -3 -3 -3 -3 -2 -1 -1 -2 -2 -2 -1 -1 -0 -0 0 1 1 1 2 2 3 2 2 3 3 3 4 4
4 4 3 3 2 2 2 1 1 1 -0 -1 -1 -1 -2 -4 -4 -4 -4 -3 -3 -3 -3 -2 -2 -2 -3 -3 -2 -2 -1 -0 -0 -0 0 1 1 2 2 2 2 2 3 3 3 4 4
4 4 4 3 3 2 2 2 1 1 1 -1 0 -0 -2 -2 -3 -2 -3 -3 -3 -3 -2 -2 -3 -2 -3 -3 -2 -2 -1 -1 -0 -0 1 1 2 2 2 2 2 3 3 3 3 3 4
5 4 4 4 3 3 2 2 2 1 1 1 -0 0 -1 -1 -2 -3 -2 -2 -3 -3 -4 -4 -3 -3 -3 -3 -2 -2 -1 -1 -0 -0 0 1 1 1 2 2 2 3 3 3 3 3 3
5 5 4 4 4 3 3 2 2 2 1 1 1 -0 -0 -1 -1 -2 -1 -1 -2 -2 -3 -4 -3 -3 -3 -3 -2 -2 -1 -1 -1 -0 0 1 1 1 1 2 2 2 2 2 2 3 3
5 5 5 5 4 4 3 3 3 2 2 1 2 1 1 1 0 -0 -1 -1 -0 -1 -1 -2 -3 -3 -3 -2 -2 -2 -1 -1 -1 -0 -0 0 0 0 1 1 2 2 2 2 2 2 2
5 5 5 5 5 4 4 3 3 3 3 2 2 2 2 2 2 1 1 0 0 -0 -6 -2 -2 -2 -2 -1 -2 -2 -1 -1 -1 -1 0 -0 -0 0 0 1 1 1 2 2 2 2 1
4 4 5 5 5 4 4 4 4 3 3 3 3 3 3 3 2 2 2 2 1 0 -5 -3 -3 -2 -1 -1 -1 -1 -1 -1 -1 -0 -0 0 -0 -0 0 0 1 1 1 1 1 0 -2
4 4 5 5 5 5 4 4 4 4 4 3 4 3 3 3 3 3 3 2 2 -2 -3 -3 -3 -2 -2 -1 -1 -1 -1 -1 -1 -1 -1 -1 -1 -0 -0 0 0 1 1 0 -2 -3 -2
4 4 4 5 5 5 5 4 4 4 4 4 4 4 3 4 4 4 4 3 0 -3 -3 -2 -2 -2 -2 -2 -2 -1 -1 -1 -1 -1 -1 -1 -2 -1 -1 -1 -1 -0 -0 -0 -3 -4 -4
4 4 4 4 5 5 5 5 4 4 4 4 4 4 4 4 4 4 4 4 -0 -1 -1 -2 -2 -2 -2 -3 -2 -2 -1 -1 -1 -0 -1 -0 -1 -1 -1 -1 -1 -1 -1 -1 -1 -5 -5
4 4 4 4 5 5 5 5 5 4 4 4 4 4 4 4 4 4 4 2 0 -0 -1 -1 -1 -1 -2 -2 -2 -2 -2 -2 -2 -1 -1 -1 -1 -2 -1 -2 -1 -2 -2 -2 -3 -5 -4
4 4 4 4 4 5 5 5 5 5 4 4 4 4 4 4 4 4 4 1 0 -0 -0 -1 -0 -0 -1 -1 -1 -1 -2 -2 -1 -1 -1 -1 -2 -2 -2 -2 -2 -2 -2 -2 -2 -3 -5
4 4 4 4 4 4 4 4 5 5 4 4 4 4 4 4 4 4 3 2 1 0 -0 -0 0 -0 -0 0 0 0 -0 -0 -0 -1 -1 -1 -1 -1 -1 -1 -1 -1 -2 -2 -2 -3 -5
4 4 3 4 4 4 4 4 4 4 4 5 4 4 4 4 4 3 3 2 2 1 1 1 -0 0 0 0 0 0 0 1 1 1 0 0 0 -0 -1 -1 -1 -1 -0 -1 -2 -3 -5
3 3 3 3 3 3 3 4 4 4 4 4 4 4 3 3 3 3 3 2 2 2 2 1 1 1 0 0 0 0 0 0 0 0 1 1 1 1 2 1 0 0 1 -0 -2 -3 -2
3 3 3 3 2 3 3 3 3 3 4 4 4 3 3 3 3 2 2 2 2 2 2 1 1 1 1 1 1 0 0 0 0 0 -0 -0 0 0 1 0 -0 0 0 -1 -1 -0 -2
2 2 2 2 2 2 3 3 3 3 3 3 3 3 3 3 3 3 2 2 2 2 1 1 1 1 1 1 0 1 0 -1 -1 -0 -1 -2 -2 -2 -1 0 -1 -1 0 -0 -1 -1 -2
2 2 2 2 2 2 2 2 2 3 3 3 2 2 2 2 2 2 2 1 1 1 1 1 1 0 0 0 1 1 1 0 -1 -1 -2 -3 -3 -3 -2 -1 -0 1 3 4 3 2 1
1 1 2 2 1 1 1 2 2 2 2 2 2 2 1 1 1 1 1 1 0 1 1 1 1 0 0 -0 -0 -0 0 0 0 -1 -2 -3 -3 -4 -4 -2 -5 3 2 2 3 2 2
1 1 1 1 1 0 1 1 1 1 1 1 1 1 1 0 0 1 0 -0 -0 -0 -0 -0 -0 0 -0 -0 -1 -0 0 0 1 0 -1 -3 -4 -4 -4 -4 1 2 2 2 2 2 1
1 1 1 1 1 0 0 0 0 0 0 1 0 0 0 -0 -0 -1 -0 -0 -1 -1 -0 -1 -1 -1 -1 -1 -1 -1 0 0 -0 -1 -1 -1 -3 -5 -5 -5 -4 2 2 1 1 1 1
0 0 0 0 0 -0 -0 -0 0 0 -0 -0 -0 -0 -0 -1 -1 -1 -1 -1 -1 -2 -2 -2 -2 -2 -2 -2 -3 -2 -1 -1 -1 -1 -1 -2 -5 -5 -7 -6 0 1 1 -1 -0 -1 -1
-1 -0 -0 -0 -0 -1 -1 -1 -1 -1 -1 -1 -1 -1 -1 -1 -1 -2 -1 -1 -1 -2 -2 -2 -2 -2 -2 -3 -3 -2 -2 -2 -1 -1 -0 -0 -1 -3 -7 -7 -3 1 -0 -1 -1 -1 -1
-1 -1 -1 -1 -1 -1 -1 -1 -1 -1 -1 -2 -2 -2 -2 -1 -1 -2 -2 -2 -1 -1 -2 -2 -3 -2 -2 -2 -3 -3 -2 -2 -1 -1 -1 -1 -0 -0 -1 1 1 1 -1 -1 -1 -1 -1

GFSGBSN_700_temp_138.txt.gz
Temp
4 3 2 2 2 2 1 0 -1 -1 -1 -2 -2 -2 -3 -3 -3 -3 -3 -3 -3 -3 -3 -4 -3 -3 -3 -3 -2 -2 -1 -1 1 1 2 2 2 2 3 3 3 4 5 6 6 6 6
4 3 3 2 2 2 1 1 -0 -1 -1 -1 -2 -2 -3 -3 -4 -3 -3 -3 -3 -3 -3 -3 -4 -3 -2 -2 -2 -2 -1 -0 1 1 2 2 2 2 3 3 3 4 5 5 6 6 6
4 4 3 2 2 2 1 1 0 -1 -0 -0 -1 -2 -3 -3 -4 -3 -3 -4 -3 -3 -4 -3 -3 -3 -3 -3 -3 -2 -1 -0 0 1 2 2 2 2 3 3 3 4 4 5 5 5 6
4 4 4 3 2 2 2 1 1 -0 -0 1 -0 -2 -4 -3 -4 -3 -4 -4 -4 -3 -3 -3 -3 -4 -3 -4 -2 -2 -1 -1 -0 -0 1 2 1 3 3 3 3 3 4 4 4 5 5
4 4 4 3 2 1 2 2 1 1 0 0 0 -0 -2 -3 -4 -3 -4 -4 -4 -3 -3 -4 -3 -3 -3 -3 -3 -2 -1 -1 -1 -0 0 1 2 2 2 3 3 3 3 3 4 4 4
4 4 4 4 3 2 2 2 1 1 1 0 0 0 -0 -1 -2 -3 -2 -3 -3 -3 -2 -3 -3 -2 -4 -3 -2 -2 -1 -1 -1 -0 0 1 2 2 2 2 3 2 3 3 4 4 4
5 4 4 4 4 3 2 2 2 1 1 1 0 -0 1 0 -1 -2 -1 -1 -1 -2 -2 -3 -3 -3 -3 -2 -2 -2 -2 -2 -1 0 1 1 2 2 2 3 3 4 4 4 4 4 4
5 5 4 4 4 3 3 2 2 2 1 0 0 0 -0 -1 -1 -2 -1 1 -0 -2 -3 -4 -4 -3 -3 -2 -1 -1 -1 -1 -1 0 1 1 2 2 2 3 3 3 4 4 4 4 4
5 5 5 4 4 4 3 3 2 2 2 1 1 1 0 -0 -0 0 0 -0 -1 -1 -2 -3 -3 -2 -2 -2 -1 -1 -1 -1 -0 0 1 1 1 1 2 2 3 3 3 3 3 4 4
5 5 5 5 4 4 4 3 3 2 2 2 2 1 1 1 0 0 0 0 0 0 -1 -2 -2 -2 -2 -2 -1 -1 -1 -0 0 0 1 1 1 1 1 2 2 3 3 3 3 3 2
5 5 5 5 5 4 4 4 4 3 3 2 2 2 2 2 1 1 1 1 1 1 -0 -2 -2 -2 -1 -1 -1 -1 -1 -0 0 0 1 0 0 1 1 1 2 2 2 2 2 2 2
5 5 5 5 5 5 5 4 4 4 3 3 3 3 2 2 2 2 2 1 1 1 -2 -2 -2 -2 -1 -1 -1 -1 -1 -0 -0 0 1 1 1 0 1 1 1 2 2 2 2 2 0
5 5 5 5 5 5 5 4 4 4 4 4 4 3 3 3 3 3 3 2 2 -1 -2 -2 -2 -1 -1 -2 -1 -1 -1 -1 -0 -0 -0 -1 -0 0 0 1 1 2 1 1 1 1 4
5 5 5 5 5 5 5 5 4 5 4 4 4 4 4 4 4 4 3 3 2 -1 -1 -1 -2 -1 -1 -1 -2 -1 -1 -1 -0 -0 -1 -0 -1 -0 -0 -0 -0 0 0 0 2 4 3
5 5 5 5 5 5 5 5 5 5 5 4 4 4 4 4 4 4 4 3 -0 -0 -0 -0 -0 -1 -1 -1 -1 -1 -1 -1 -1 -1 -1 -1 -1 -1 -1 -1 -0 -1 -1 -1 -1 -2 -2
5 5 5 5 4 4 4 5 5 5 5 5 4 4 4 4 4 4 4 2 1 0 -1 -1 -1 -0 -0 -0 -0 -0 -0 -0 -0 -0 0 -0 -2 -1 -1 -1 -1 -1 -1 -2 -1 0 2
5 4 4 5 4 4 4 4 5 5 5 5 4 4 4 4 4 4 4 2 1 0 -0 -0 -0 -0 -0 -0 -0 -0 0 0 0 0 0 0 0 -1 -1 -0 -1 -1 -1 -1 -1 -2 1
4 4 4 4 4 4 4 4 5 5 5 5 4 4 4 4 4 4 3 3 2 2 1 1 0 0 -0 -0 -0 -0 -1 -1 -0 0 0 0 0 -0 -0 0 -0 -0 -1 -1 -0 -2 -2
4 4 4 3 4 4 4 4 4 5 5 5 5 5 4 4 4 3 3 2 2 2 2 1 1 1 1 1 0 1 0 0 -0 -0 -1 -0 -0 -1 -1 -1 -1 -1 -0 -1 -1 -2 -2
3 3 3 3 3 3 3 3 4 4 4 5 5 4 4 4 3 3 3 3 2 2 2 2 1 1 1 1 1 1 1 1 0 0 -0 -1 -1 -0 1 0 0 -0 0 0 -1 -3 -0
3 3 3 3 3 3 3 3 3 3 4 4 4 4 4 4 4 3 2 2 2 2 2 2 2 2 1 1 1 1 0 0 1 0 1 0 0 1 1 0 0 0 -0 -0 -1 -0 -2
2 3 3 3 2 2 2 2 2 3 3 3 3 3 3 3 3 3 2 2 1 1 1 1 1 1 1 1 0 0 0 -0 -1 -0 -0 -0 -1 -0 1 1 0 1 1 -0 -3 -2 -3
2 2 2 2 2 2 2 2 2 2 2 2 2 3 2 2 2 2 2 1 1 1 0 0 1 0 0 0 1 0 -0 -0 -1 -1 -2 -3 -2 -2 -2 -1 -1 0 1 2 1 1 0
1 2 2 2 2 2 1 1 1 1 2 2 2 2 2 1 1 1 1 1 1 0 -0 -0 -0 -0 -0 -0 -1 -0 -0 -0 -1 -1 -2 -3 -3 -4 -3 -2 -1 2 3 3 2 1 2
1 1 1 1 1 1 1 1 1 1 1 1 1 1 1 1 0 0 0 0 -0 -0 -0 -1 -1 -1 -1 -1 -1 -1 0 0 0 -0 -1 -2 -4 -5 -4 -4 2 1 2 1 1 0 1
0 0 0 0 0 1 1 1 0 1 1 1 1 1 1 0 -0 -1 -1 -1 -1 -1 -1 -1 -1 -1 -2 -1 -1 -2 -0 -0 -1 -1 -1 -2 -4 -5 -5 -5 -0 2 1 1 0 0 0
-0 -0 -0 -0 -0 -0 -0 -0 -0 -0 0 0 0 0 1 -0 -0 -0 -1 -1 -1 -1 -1 -1 -2 -2 -2 -2 -3 -2 -2 -1 -1 -1 -0 -2 -5 -6 -6 -5 0 1 0 -1 -1 -0 -1
-1 -1 -1 -0 -0 -0 -1 -1 -1 -1 -1 -0 -0 -0 -0 0 -0 -0 -1 -1 -1 -2 -2 -2 -3 -2 -2 -3 -3 -2 -2 -2 -2 -1 -1 -1 -1 -4 -6 -6 -3 1 -0 -1 -1 -1 -1
-2 -1 -1 -1 -1 -1 -0 -1 -1 -1 -1 -1 -1 -1 -1 -1 -1 -1 -1 -1 -1 -2 -2 -2 -3 -3 -3 -2 -3 -3 -3 -3 -2 -2 -1 -2 -1 -1 -1 1 1 -0 -1 -1 -2 -2 -1